GW2849 Weather Reports


Display with metric or nautical units.
time (UTC)temp
F
wind
direction
speed
MPH
gust
MPH
rain 1hr
in
rain 24hr
in
rain mn
in
humidity
%
barometer
mb
20260901125258 77 259 0.0 4.0 0.00 0.00 0.00 77 1019.5
20260901125158 77 170 0.0 4.0 0.00 0.00 0.00 77 1019.5
20260901124957 77 269 0.0 4.0 0.00 0.00 0.00 77 1019.5
20260901124758 77 244 0.0 3.0 0.00 0.00 0.00 77 1019.5
20260901124657 77 180 1.0 3.0 0.00 0.00 0.00 77 1019.5
20260901124559 77 243 1.0 3.0 0.00 0.00 0.00 77 1019.5
20260901124458 77 289 0.0 3.0 0.00 0.00 0.00 78 1019.4
20260901124358 77 249 0.0 3.0 0.00 0.00 0.00 78 1019.5
20260901124258 77 198 0.0 3.0 0.00 0.00 0.00 78 1019.5
20260901124157 77 315 0.0 3.0 0.00 0.00 0.00 78 1019.5
20260901124100 76 302 0.0 3.0 0.00 0.00 0.00 78 1019.5
20260901123858 76 257 0.0 3.0 0.00 0.00 0.00 78 1019.4
20260901123759 76 135 0.0 3.0 0.00 0.00 0.00 78 1019.5
20260901123657 76 261 0.0 3.0 0.00 0.00 0.00 78 1019.5
20260901123557 76 178 0.0 3.0 0.00 0.00 0.00 79 1019.5
20260901123457 76 207 0.0 3.0 0.00 0.00 0.00 79 1019.5
20260901123358 76 233 0.0 3.0 0.00 0.00 0.00 79 1019.4
20260901123257 76 269 3.0 3.0 0.00 0.00 0.00 79 1019.6
20260901123158 76 200 0.0 3.0 0.00 0.00 0.00 79 1019.5
20260901123057 76 197 0.0 3.0 0.00 0.00 0.00 79 1019.5
20260901122957 76 206 0.0 3.0 0.00 0.00 0.00 79 1019.4
20260901122857 76 243 0.0 3.0 0.00 0.00 0.00 79 1019.4
20260901122758 76 150 0.0 3.0 0.00 0.00 0.00 79 1019.4
20260901122659 76 179 0.0 3.0 0.00 0.00 0.00 80 1019.4
20260901122458 76 293 1.0 3.0 0.00 0.00 0.00 79 1019.4
20260901122357 75 196 0.0 3.0 0.00 0.00 0.00 79 1019.3
20260901122258 75 183 0.0 3.0 0.00 0.00 0.00 80 1019.4
20260901121957 75 170 0.0 3.0 0.00 0.00 0.00 80 1019.4
20260901121858 75 169 2.0 3.0 0.00 0.00 0.00 80 1019.4
20260901121757 75 192 2.0 3.0 0.00 0.00 0.00 80 1019.4
20260901121658 75 181 2.0 3.0 0.00 0.00 0.00 80 1019.5
20260901121557 75 215 2.0 3.0 0.00 0.00 0.00 80 1019.4
20260901121459 75 204 1.0 3.0 0.00 0.00 0.00 80 1019.3
20260901121257 75 226 0.0 1.0 0.00 0.00 0.00 80 1019.3
20260901121158 75 190 0.0 1.0 0.00 0.00 0.00 80 1019.4
20260901121101 75 274 0.0 1.0 0.00 0.00 0.00 80 1019.3
20260901120957 75 171 1.0 1.0 0.00 0.00 0.00 80 1019.3
20260901120757 75 173 0.0 1.0 0.00 0.00 0.00 81 1019.3
20260901120656 75 173 0.0 1.0 0.00 0.00 0.00 81 1019.2
20260901120459 75 182 0.0 1.0 0.00 0.00 0.00 81 1019.3
20260901120357 74 179 0.0 1.0 0.00 0.00 0.00 81 1019.2
20260901120257 74 179 0.0 1.0 0.00 0.00 0.00 81 1019.3
20260901120157 74 167 0.0 2.0 0.00 0.00 0.00 81 1019.2
20260901120057 74 235 0.0 2.0 0.00 0.00 0.00 81 1019.2
20260901115857 74 171 0.0 2.0 0.00 0.00 0.00 82 1019.2
20260901115758 74 207 0.0 2.0 0.00 0.00 0.00 82 1019.2
20260901115658 74 180 0.0 3.0 0.00 0.00 0.00 82 1019.2
20260901115558 74 180 0.0 3.0 0.00 0.00 0.00 82 1019.1
20260901115458 74 180 0.0 3.0 0.00 0.00 0.00 82 1019.2
20260901115357 74 195 0.0 3.0 0.00 0.00 0.00 82 1019.0
20260901115257 74 195 1.0 3.0 0.00 0.00 0.00 82 1019.1
20260901115158 74 199 1.0 3.0 0.00 0.00 0.00 82 1019.1
20260901114957 74 202 1.0 3.0 0.00 0.00 0.00 83 1019.1
20260901114759 74 216 1.0 3.0 0.00 0.00 0.00 83 1019.0
20260901114658 73 257 0.0 2.0 0.00 0.00 0.00 83 1019.0
20260901114558 73 259 0.0 2.0 0.00 0.00 0.00 83 1019.0
20260901114457 73 279 0.0 2.0 0.00 0.00 0.00 83 1019.0
20260901114357 73 257 0.0 2.0 0.00 0.00 0.00 83 1019.0
20260901114257 73 254 0.0 2.0 0.00 0.00 0.00 83 1019.0
20260901114157 73 215 0.0 2.0 0.00 0.00 0.00 83 1019.0
20260901114057 73 215 0.0 2.0 0.00 0.00 0.00 83 1019.0
20260901113759 73 197 0.0 0.0 0.00 0.00 0.00 83 1018.9
20260901113657 73 197 0.0 0.0 0.00 0.00 0.00 83 1018.9
20260901113559 73 174 0.0 0.0 0.00 0.00 0.00 83 1018.9
20260901113458 73 227 0.0 0.0 0.00 0.00 0.00 83 1018.9
20260901113358 73 226 0.0 0.0 0.00 0.00 0.00 83 1018.9
20260901113257 73 244 0.0 0.0 0.00 0.00 0.00 83 1018.9
20260901113200 73 244 0.0 0.0 0.00 0.00 0.00 83 1018.8
20260901113057 73 198 0.0 0.0 0.00 0.00 0.00 83 1018.9
20260901112958 73 198 0.0 0.0 0.00 0.00 0.00 83 1018.9
20260901112858 73 198 0.0 0.0 0.00 0.00 0.00 83 1018.9
20260901112757 73 198 0.0 0.0 0.00 0.00 0.00 83 1018.8
20260901112457 73 198 0.0 0.0 0.00 0.00 0.00 83 1018.8
20260901112357 73 198 0.0 0.0 0.00 0.00 0.00 83 1018.7
20260901112257 73 198 0.0 0.0 0.00 0.00 0.00 84 1018.7
20260901112158 73 198 0.0 0.0 0.00 0.00 0.00 83 1018.7
20260901111957 73 198 0.0 0.0 0.00 0.00 0.00 83 1018.7
20260901111900 73 198 0.0 0.0 0.00 0.00 0.00 83 1018.7
20260901111658 73 198 0.0 0.0 0.00 0.00 0.00 83 1018.7
20260901111557 73 198 0.0 0.0 0.00 0.00 0.00 83 1018.7
20260901111458 73 198 0.0 0.0 0.00 0.00 0.00 83 1018.7
20260901111357 73 198 0.0 0.0 0.00 0.00 0.00 83 1018.6
20260901111257 73 198 0.0 0.0 0.00 0.00 0.00 83 1018.7
20260901111158 73 198 0.0 0.0 0.00 0.00 0.00 83 1018.6
20260901111057 73 198 0.0 0.0 0.00 0.00 0.00 83 1018.6
20260901110857 73 198 0.0 0.0 0.00 0.00 0.00 83 1018.6
20260901110757 73 198 0.0 0.0 0.00 0.00 0.00 83 1018.6
20260901110657 73 198 0.0 0.0 0.00 0.00 0.00 83 1018.5
20260901110458 73 198 0.0 0.0 0.00 0.00 0.00 83 1018.6
20260901110356 73 198 0.0 0.0 0.00 0.00 0.00 83 1018.6
20260901110257 73 198 0.0 0.0 0.00 0.00 0.00 83 1018.5
20260901110157 73 198 0.0 0.0 0.00 0.00 0.00 83 1018.5
20260901110057 73 198 0.0 0.0 0.00 0.00 0.00 83 1018.6
20260901110003 73 198 0.0 0.0 0.00 0.00 0.00 83 1018.6
20260901105900 73 198 0.0 0.0 0.00 0.00 0.00 83 1018.5
20260901105758 73 198 0.0 0.0 0.00 0.00 0.00 83 1018.6
20260901105658 73 198 0.0 0.0 0.00 0.00 0.00 83 1018.6
20260901105558 73 198 0.0 0.0 0.00 0.00 0.00 83 1018.6
20260901105359 73 198 0.0 0.0 0.00 0.00 0.00 83 1018.6
20260901105258 73 198 0.0 0.0 0.00 0.00 0.00 83 1018.6
20260901105200 73 198 0.0 0.0 0.00 0.00 0.00 83 1018.6
20260901104959 73 198 0.0 0.0 0.00 0.00 0.00 83 1018.6
20260901104859 73 198 0.0 0.0 0.00 0.00 0.00 83 1018.6
20260901104658 73 204 0.0 0.0 0.00 0.00 0.00 83 1018.5
20260901104558 73 204 0.0 0.0 0.00 0.00 0.00 83 1018.5
20260901104358 73 204 0.0 0.0 0.00 0.00 0.00 83 1018.4
20260901104259 73 204 0.0 0.0 0.00 0.00 0.00 82 1018.5
20260901104159 73 204 0.0 0.0 0.00 0.00 0.00 82 1018.4
20260901104058 73 204 0.0 0.0 0.00 0.00 0.00 82 1018.4
20260901103959 73 204 0.0 0.0 0.00 0.00 0.00 82 1018.4
20260901103900 73 204 0.0 0.0 0.00 0.00 0.00 82 1018.4
20260901103758 73 204 0.0 0.0 0.00 0.00 0.00 82 1018.4
20260901103658 73 204 0.0 0.0 0.00 0.00 0.00 82 1018.4
20260901103601 73 204 0.0 0.0 0.00 0.00 0.00 82 1018.4
20260901103458 73 204 0.0 0.0 0.00 0.00 0.00 82 1018.4
20260901103401 73 204 0.0 0.0 0.00 0.00 0.00 82 1018.3
20260901103258 73 204 0.0 0.0 0.00 0.00 0.00 82 1018.4
20260901103201 73 204 0.0 0.0 0.00 0.00 0.00 82 1018.4
20260901103058 73 204 0.0 0.0 0.00 0.00 0.00 82 1018.3
20260901103000 73 204 0.0 0.0 0.00 0.00 0.00 82 1018.3
20260901102758 73 204 0.0 0.0 0.00 0.00 0.00 82 1018.3
20260901102559 73 204 0.0 0.0 0.00 0.00 0.00 82 1018.3
20260901102502 73 204 0.0 0.0 0.00 0.00 0.00 82 1018.2
20260901102359 74 204 0.0 0.0 0.00 0.00 0.00 82 1018.3
20260901102257 74 204 0.0 0.0 0.00 0.00 0.00 82 1018.2
20260901102200 74 204 0.0 0.0 0.00 0.00 0.00 82 1018.2
20260901102057 74 204 0.0 0.0 0.00 0.00 0.00 82 1018.2
20260901101858 74 204 0.0 0.0 0.00 0.00 0.00 82 1018.3
20260901101800 74 204 0.0 0.0 0.00 0.00 0.00 82 1018.3
20260901101657 74 204 0.0 0.0 0.00 0.00 0.00 82 1018.3
20260901101558 74 204 0.0 0.0 0.00 0.00 0.00 82 1018.3
20260901101259 74 204 0.0 0.0 0.00 0.00 0.00 82 1018.2
20260901101158 74 204 0.0 0.0 0.00 0.00 0.00 82 1018.3
20260901100958 74 204 0.0 0.0 0.00 0.00 0.00 81 1018.2
20260901100859 74 204 0.0 0.0 0.00 0.00 0.00 81 1018.2
20260901100801 74 204 0.0 0.0 0.00 0.00 0.00 81 1018.2
20260901100658 74 204 0.0 0.0 0.00 0.00 0.00 81 1018.1
20260901100558 74 204 0.0 0.0 0.00 0.00 0.00 81 1018.1
20260901100458 74 204 0.0 0.0 0.00 0.00 0.00 81 1018.2
20260901100400 74 171 0.0 0.0 0.00 0.00 0.00 81 1018.2
20260901100258 74 171 0.0 0.0 0.00 0.00 0.00 81 1018.0
20260901100158 74 171 0.0 0.0 0.00 0.00 0.00 81 1018.1
20260901100058 74 171 0.0 0.0 0.00 0.00 0.00 81 1018.1
20260901095957 74 171 0.0 0.0 0.00 0.00 0.00 81 1018.1
20260901095758 74 171 0.0 0.0 0.00 0.00 0.00 81 1018.1
20260901095657 74 171 0.0 0.0 0.00 0.00 0.00 81 1018.1
20260901095558 74 171 0.0 0.0 0.00 0.00 0.00 81 1018.2
20260901095457 74 171 0.0 0.0 0.00 0.00 0.00 81 1018.1
20260901095357 74 171 0.0 0.0 0.00 0.00 0.00 82 1018.1
20260901095057 74 171 0.0 0.0 0.00 0.00 0.00 82 1018.1
20260901094957 74 171 0.0 0.0 0.00 0.00 0.00 82 1018.1
20260901094759 74 171 0.0 0.0 0.00 0.00 0.00 82 1018.1
20260901094657 74 171 0.0 0.0 0.00 0.00 0.00 82 1018.1
20260901094558 74 175 0.0 0.0 0.00 0.00 0.00 82 1018.1
20260901094359 74 175 0.0 0.0 0.00 0.00 0.00 82 1018.1
20260901094157 74 167 0.0 0.0 0.00 0.00 0.00 82 1018.1
20260901094057 74 167 0.0 0.0 0.00 0.00 0.00 82 1018.1
20260901093958 74 167 0.0 0.0 0.00 0.00 0.00 82 1018.0
20260901093858 74 229 0.0 0.0 0.00 0.00 0.00 82 1017.9
20260901093658 74 229 0.0 0.0 0.00 0.00 0.00 82 1018.0
20260901093458 74 229 0.0 0.0 0.00 0.00 0.00 82 1017.9
20260901093357 74 229 0.0 0.0 0.00 0.00 0.00 82 1017.8
20260901093156 74 229 0.0 0.0 0.00 0.00 0.00 81 1017.8
20260901093058 74 229 0.0 0.0 0.00 0.00 0.00 81 1017.8
20260901093000 74 229 0.0 0.0 0.00 0.00 0.00 81 1017.8
20260901092757 74 229 0.0 0.0 0.00 0.00 0.00 81 1017.8
20260901092657 74 229 0.0 0.0 0.00 0.00 0.00 81 1017.8
20260901092557 74 229 0.0 0.0 0.00 0.00 0.00 81 1017.8
20260901092357 74 229 0.0 0.0 0.00 0.00 0.00 81 1017.8
20260901092259 74 229 0.0 0.0 0.00 0.00 0.00 81 1017.8
20260901092157 74 229 0.0 0.0 0.00 0.00 0.00 81 1017.8
20260901091956 74 208 0.0 0.0 0.00 0.00 0.00 81 1017.9
20260901091858 74 208 0.0 0.0 0.00 0.00 0.00 81 1017.8
20260901091756 74 208 0.0 0.0 0.00 0.00 0.00 81 1017.8
20260901091557 74 208 0.0 0.0 0.00 0.00 0.00 81 1017.8
20260901091457 74 208 0.0 0.0 0.00 0.00 0.00 81 1017.8
20260901091358 74 208 0.0 0.0 0.00 0.00 0.00 81 1017.8
20260901091259 74 208 0.0 0.0 0.00 0.00 0.00 80 1017.8
20260901091157 74 208 0.0 0.0 0.00 0.00 0.00 80 1017.9
20260901091059 75 208 0.0 0.0 0.00 0.00 0.00 80 1017.8
20260901090958 75 208 0.0 0.0 0.00 0.00 0.00 80 1017.8
20260901090857 75 208 0.0 0.0 0.00 0.00 0.00 80 1017.8
20260901090757 75 208 0.0 0.0 0.00 0.00 0.00 80 1017.8
20260901090657 75 208 0.0 0.0 0.00 0.00 0.00 80 1017.8
20260901090458 75 208 0.0 0.0 0.00 0.00 0.00 79 1017.7
20260901090257 75 208 0.0 0.0 0.00 0.00 0.00 80 1017.7
20260901090158 75 208 0.0 0.0 0.00 0.00 0.00 79 1017.7
20260901090100 75 208 0.0 0.0 0.00 0.00 0.00 80 1017.7
20260901085957 75 208 0.0 0.0 0.00 0.00 0.00 80 1017.7
20260901085858 75 208 0.0 0.0 0.00 0.00 0.00 79 1017.7
20260901085656 75 208 0.0 0.0 0.00 0.00 0.00 79 1017.7
20260901085557 75 208 0.0 0.0 0.00 0.00 0.00 79 1017.6
20260901085457 75 208 0.0 0.0 0.00 0.00 0.00 79 1017.7
20260901085358 75 234 0.0 0.0 0.00 0.00 0.00 79 1017.7
20260901085259 75 234 0.0 0.0 0.00 0.00 0.00 79 1017.7
20260901085157 75 234 0.0 0.0 0.00 0.00 0.00 79 1017.6
20260901084956 75 234 0.0 0.0 0.00 0.00 0.00 79 1017.6
20260901084859 75 234 0.0 0.0 0.00 0.00 0.00 79 1017.6
20260901084756 75 234 0.0 0.0 0.00 0.00 0.00 79 1017.7
20260901084658 75 234 0.0 0.0 0.00 0.00 0.00 79 1017.6
20260901084557 75 234 0.0 0.0 0.00 0.00 0.00 78 1017.7
20260901084458 75 234 0.0 0.0 0.00 0.00 0.00 78 1017.6
20260901084359 76 234 0.0 0.0 0.00 0.00 0.00 78 1017.6
20260901084157 76 288 0.0 0.0 0.00 0.00 0.00 78 1017.7
20260901084057 76 288 0.0 0.0 0.00 0.00 0.00 78 1017.6
20260901083956 76 288 0.0 0.0 0.00 0.00 0.00 78 1017.6
20260901083756 76 288 0.0 0.0 0.00 0.00 0.00 78 1017.7
20260901083457 76 288 0.0 0.0 0.00 0.00 0.00 78 1017.6
20260901083357 76 288 0.0 0.0 0.00 0.00 0.00 77 1017.6
20260901083257 76 288 0.0 0.0 0.00 0.00 0.00 77 1017.7
20260901083157 76 288 0.0 0.0 0.00 0.00 0.00 77 1017.6
20260901083058 76 288 0.0 0.0 0.00 0.00 0.00 77 1017.6
20260901082959 76 288 0.0 0.0 0.00 0.00 0.00 77 1017.6
20260901082558 76 288 0.0 0.0 0.00 0.00 0.00 77 1017.6
20260901082458 76 288 0.0 0.0 0.00 0.00 0.00 77 1017.6
20260901082400 76 288 0.0 0.0 0.00 0.00 0.00 76 1017.6
20260901082257 76 288 0.0 0.0 0.00 0.00 0.00 76 1017.5
20260901082058 76 288 0.0 0.0 0.00 0.00 0.00 76 1017.5
20260901081957 76 288 0.0 0.0 0.00 0.00 0.00 76 1017.5
20260901081857 76 288 0.0 0.0 0.00 0.00 0.00 76 1017.5
20260901081757 76 288 0.0 0.0 0.00 0.00 0.00 76 1017.6
20260901081659 77 288 0.0 0.0 0.00 0.00 0.00 76 1017.5
20260901081557 77 287 0.0 0.0 0.00 0.00 0.00 76 1017.6
20260901081456 77 290 0.0 0.0 0.00 0.00 0.00 76 1017.6
20260901081357 77 290 0.0 0.0 0.00 0.00 0.00 76 1017.5
20260901081257 77 290 0.0 0.0 0.00 0.00 0.00 76 1017.6
20260901081158 77 227 0.0 0.0 0.00 0.00 0.00 76 1017.6
20260901081057 77 227 0.0 0.0 0.00 0.00 0.00 76 1017.5
20260901080957 77 227 0.0 0.0 0.00 0.00 0.00 76 1017.6
20260901080858 77 227 0.0 0.0 0.00 0.00 0.00 76 1017.5
20260901080757 77 227 0.0 0.0 0.00 0.00 0.00 76 1017.6
20260901080657 77 227 0.0 0.0 0.00 0.00 0.00 76 1017.5
20260901080557 77 190 0.0 0.0 0.00 0.00 0.00 76 1017.5
20260901080458 77 190 0.0 0.0 0.00 0.00 0.00 76 1017.5
20260901080257 77 198 0.0 1.0 0.00 0.00 0.00 76 1017.4
20260901080158 77 293 0.0 1.0 0.00 0.00 0.00 75 1017.4
20260901080057 77 287 0.0 1.0 0.00 0.00 0.00 76 1017.4
20260901075957 77 294 0.0 1.0 0.00 0.00 0.00 75 1017.4
20260901075857 77 254 0.0 1.0 0.00 0.00 0.00 75 1017.5
20260901075757 77 277 0.0 1.0 0.00 0.00 0.00 75 1017.5
20260901075559 77 275 0.0 1.0 0.00 0.00 0.00 75 1017.4
20260901075456 77 275 0.0 1.0 0.00 0.00 0.00 75 1017.4
20260901075357 77 327 0.0 0.0 0.00 0.00 0.00 75 1017.4
20260901075258 77 326 0.0 0.0 0.00 0.00 0.00 75 1017.3
20260901075056 77 327 0.0 0.0 0.00 0.00 0.00 75 1017.4
20260901074957 77 327 0.0 0.0 0.00 0.00 0.00 75 1017.4
20260901074857 77 303 0.0 0.0 0.00 0.00 0.00 75 1017.3
20260901074757 77 303 0.0 0.0 0.00 0.00 0.00 75 1017.3
20260901074658 77 303 0.0 0.0 0.00 0.00 0.00 75 1017.4
20260901074557 77 303 0.0 0.0 0.00 0.00 0.00 75 1017.4
20260901074457 77 303 0.0 1.0 0.00 0.00 0.00 74 1017.3
20260901074357 77 303 0.0 1.0 0.00 0.00 0.00 74 1017.4
20260901074257 77 303 0.0 1.0 0.00 0.00 0.00 74 1017.4
20260901074157 77 303 0.0 1.0 0.00 0.00 0.00 74 1017.3
20260901074057 77 303 0.0 1.0 0.00 0.00 0.00 74 1017.3
20260901073957 77 303 0.0 1.0 0.00 0.00 0.00 74 1017.2
20260901073757 78 303 0.0 1.0 0.00 0.00 0.00 74 1017.2
20260901073657 78 303 0.0 1.0 0.00 0.00 0.00 73 1017.3
20260901073558 78 303 0.0 1.0 0.00 0.00 0.00 73 1017.2
20260901073458 78 335 0.0 2.0 0.00 0.00 0.00 73 1017.2
20260901073157 78 335 0.0 3.0 0.00 0.00 0.00 73 1017.1
20260901073056 78 336 0.0 3.0 0.00 0.00 0.00 73 1017.1
20260901072957 78 336 0.0 3.0 0.00 0.00 0.00 73 1017.1
20260901072857 78 336 0.0 3.0 0.00 0.00 0.00 73 1017.1
20260901072758 78 336 0.0 3.0 0.00 0.00 0.00 73 1017.1
20260901072657 78 332 0.0 3.0 0.00 0.00 0.00 73 1017.1
20260901072557 78 273 0.0 3.0 0.00 0.00 0.00 73 1017.0
20260901072356 78 341 1.0 3.0 0.00 0.00 0.00 73 1017.0
20260901072258 78 306 0.0 3.0 0.00 0.00 0.00 73 1017.0
20260901071957 78 262 0.0 4.0 0.00 0.00 0.00 73 1017.0
20260901071859 78 259 0.0 4.0 0.00 0.00 0.00 73 1016.9
20260901071657 78 211 0.0 4.0 0.00 0.00 0.00 73 1017.0
20260901071557 78 222 1.0 4.0 0.00 0.00 0.00 73 1017.0
20260901071457 78 163 1.0 4.0 0.00 0.00 0.00 73 1017.0
20260901071357 78 172 0.0 4.0 0.00 0.00 0.00 73 1016.9
20260901071257 78 172 0.0 5.0 0.00 0.00 0.00 73 1016.9
20260901071157 78 169 0.0 5.0 0.00 0.00 0.00 73 1016.9
20260901071057 78 190 0.0 5.0 0.00 0.00 0.00 73 1016.9
20260901070857 78 245 0.0 5.0 0.00 0.00 0.00 73 1016.8
20260901070758 78 245 0.0 5.0 0.00 0.00 0.00 73 1016.9
20260901070357 78 11 1.0 3.0 0.00 0.00 0.00 73 1016.9
20260901070157 78 220 0.0 3.0 0.00 0.00 0.00 73 1017.0
20260901070059 78 115 0.0 3.0 0.00 0.00 0.00 73 1017.0
20260901065957 78 102 0.0 3.0 0.00 0.00 0.00 73 1016.9
20260901065758 78 170 2.0 3.0 0.00 0.00 0.00 73 1016.9
20260901065657 78 223 0.0 3.0 0.00 0.00 0.00 73 1016.9
20260901065557 78 198 3.0 4.0 0.00 0.00 0.00 73 1016.8
20260901065457 78 192 0.0 2.0 0.00 0.00 0.00 73 1016.9
20260901065356 78 190 0.0 5.0 0.00 0.00 0.00 73 1016.9
20260901065257 78 165 0.0 5.0 0.00 0.00 0.00 73 1016.9
20260901065158 78 267 0.0 5.0 0.00 0.00 0.00 73 1016.9
20260901065057 78 285 0.0 5.0 0.00 0.00 0.00 74 1016.9
20260901064958 78 249 0.0 5.0 0.00 0.00 0.00 74 1016.9
20260901064857 78 186 1.0 5.0 0.00 0.00 0.00 74 1016.8
20260901064756 78 170 1.0 5.0 0.00 0.00 0.00 74 1016.9
20260901064559 78 155 0.0 5.0 0.00 0.00 0.00 74 1016.9
20260901064358 78 180 0.0 5.0 0.00 0.00 0.00 75 1016.9
20260901064157 77 255 0.0 4.0 0.00 0.00 0.00 75 1016.9
20260901064057 77 175 0.0 4.0 0.00 0.00 0.00 75 1016.9
20260901063957 77 182 1.0 5.0 0.00 0.00 0.00 76 1017.0
20260901063857 77 205 0.0 3.0 0.00 0.00 0.00 76 1016.9
20260901063757 77 247 0.0 3.0 0.00 0.00 0.00 76 1017.0
20260901063658 77 196 2.0 3.0 0.00 0.00 0.00 76 1017.0
20260901063557 77 295 0.0 0.0 0.00 0.00 0.00 77 1017.1
20260901063456 77 302 0.0 0.0 0.00 0.00 0.00 77 1017.0
20260901063358 77 302 0.0 0.0 0.00 0.00 0.00 77 1017.0
20260901063257 77 300 0.0 0.0 0.00 0.00 0.00 77 1017.1
20260901063157 77 195 0.0 0.0 0.00 0.00 0.00 77 1017.1
20260901063059 77 259 0.0 1.0 0.00 0.00 0.00 77 1017.1
20260901062957 77 226 0.0 1.0 0.00 0.00 0.00 77 1017.0
20260901062857 77 226 0.0 1.0 0.00 0.00 0.00 77 1017.0
20260901062757 77 226 0.0 1.0 0.00 0.00 0.00 77 1017.1
20260901062700 77 226 0.0 1.0 0.00 0.00 0.00 77 1017.1
20260901062557 77 226 0.0 1.0 0.00 0.00 0.00 78 1017.1
20260901062457 77 171 0.0 1.0 0.00 0.00 0.00 78 1017.1
20260901062357 77 247 0.0 1.0 0.00 0.00 0.00 78 1017.0
20260901062257 77 225 0.0 1.0 0.00 0.00 0.00 78 1017.0
20260901062157 77 211 0.0 0.0 0.00 0.00 0.00 78 1017.0
20260901062056 77 223 0.0 0.0 0.00 0.00 0.00 78 1017.0
20260901061959 77 202 0.0 0.0 0.00 0.00 0.00 78 1017.0
20260901061856 76 225 0.0 0.0 0.00 0.00 0.00 78 1017.1
20260901061757 76 304 0.0 0.0 0.00 0.00 0.00 78 1017.0
20260901061557 76 218 0.0 0.0 0.00 0.00 0.00 79 1017.1
20260901061457 76 218 0.0 0.0 0.00 0.00 0.00 79 1017.1
20260901061258 76 227 0.0 0.0 0.00 0.00 0.00 79 1017.1
20260901061156 76 227 0.0 0.0 0.00 0.00 0.00 79 1017.1
20260901061057 76 235 0.0 0.0 0.00 0.00 0.00 79 1017.1
20260901060958 76 235 0.0 0.0 0.00 0.00 0.00 79 1017.1
20260901060857 76 235 0.0 0.0 0.00 0.00 0.00 79 1017.2
20260901060658 77 235 0.0 0.0 0.00 0.00 0.00 79 1017.3
20260901060557 77 235 0.0 0.0 0.00 0.00 0.00 79 1017.3
20260901060158 77 235 0.0 0.0 0.00 0.00 0.00 79 1017.4
20260901060058 77 235 0.0 0.0 0.00 0.00 0.00 79 1017.4
20260901055957 77 235 0.0 0.0 0.00 0.00 0.00 79 1017.5
20260901055856 77 235 0.0 0.0 0.00 0.00 0.00 79 1017.4
20260901055757 77 235 0.0 0.0 0.00 0.00 0.00 79 1017.5
20260901055658 77 235 0.0 0.0 0.00 0.00 0.00 78 1017.4
20260901055458 77 235 0.0 0.0 0.00 0.00 0.00 78 1017.4
20260901055358 77 235 0.0 0.0 0.00 0.00 0.00 78 1017.5
20260901055157 77 235 0.0 0.0 0.00 0.00 0.00 78 1017.5
20260901055057 77 235 0.0 0.0 0.00 0.00 0.00 78 1017.5
20260901054959 77 235 0.0 0.0 0.00 0.00 0.00 78 1017.5
20260901054857 77 235 0.0 0.0 0.00 0.00 0.00 78 1017.5
20260901054658 77 235 0.0 0.0 0.00 0.00 0.00 78 1017.6
20260901054557 77 235 0.0 0.0 0.00 0.00 0.00 78 1017.6
20260901054457 77 235 0.0 0.0 0.00 0.00 0.00 78 1017.6
20260901054258 77 235 0.0 0.0 0.00 0.00 0.00 79 1017.7
20260901054157 77 235 0.0 0.0 0.00 0.00 0.00 79 1017.7
20260901054057 77 235 0.0 0.0 0.00 0.00 0.00 79 1017.7
20260901053957 77 235 0.0 0.0 0.00 0.00 0.00 79 1017.7
20260901053757 77 235 0.0 0.0 0.00 0.00 0.00 79 1017.7
20260901053557 77 302 0.0 0.0 0.00 0.00 0.00 79 1017.6
20260901053457 77 262 0.0 0.0 0.00 0.00 0.00 79 1017.7
20260901053359 77 262 0.0 0.0 0.00 0.00 0.00 79 1017.7
20260901053258 77 272 0.0 0.0 0.00 0.00 0.00 79 1017.7
20260901053157 77 248 0.0 0.0 0.00 0.00 0.00 79 1017.6
20260901053058 77 248 0.0 0.0 0.00 0.00 0.00 79 1017.6
20260901052957 77 272 0.0 0.0 0.00 0.00 0.00 79 1017.7
20260901052859 77 247 0.0 0.0 0.00 0.00 0.00 79 1017.7
20260901052756 77 251 0.0 0.0 0.00 0.00 0.00 79 1017.8
20260901052656 77 251 0.0 0.0 0.00 0.00 0.00 80 1017.8
20260901052557 77 236 0.0 0.0 0.00 0.00 0.00 80 1017.8
20260901052357 77 232 0.0 0.0 0.00 0.00 0.00 80 1017.7
20260901052257 76 244 0.0 0.0 0.00 0.00 0.00 80 1017.8
20260901052157 77 244 0.0 0.0 0.00 0.00 0.00 80 1017.8
20260901052057 76 208 0.0 0.0 0.00 0.00 0.00 80 1017.8
20260901051956 76 208 0.0 0.0 0.00 0.00 0.00 80 1017.8
20260901051857 76 208 0.0 0.0 0.00 0.00 0.00 80 1017.8
20260901051758 76 233 0.0 0.0 0.00 0.00 0.00 80 1017.8
20260901051657 76 234 0.0 0.0 0.00 0.00 0.00 80 1017.8
20260901051557 76 234 0.0 0.0 0.00 0.00 0.00 80 1017.8
20260901051457 76 234 0.0 0.0 0.00 0.00 0.00 80 1017.9
20260901051359 76 234 0.0 0.0 0.00 0.00 0.00 80 1017.9
20260901051256 77 234 0.0 0.0 0.00 0.00 0.00 80 1017.9
20260901051156 77 234 0.0 0.0 0.00 0.00 0.00 80 1017.9
20260901051057 77 234 0.0 0.0 0.00 0.00 0.00 79 1017.9
20260901050957 77 234 0.0 0.0 0.00 0.00 0.00 80 1017.9
20260901050857 77 234 0.0 0.0 0.00 0.00 0.00 79 1018.0
20260901050758 77 234 0.0 0.0 0.00 0.00 0.00 79 1018.0
20260901050657 77 234 0.0 0.0 0.00 0.00 0.00 79 1017.9
20260901050557 77 234 0.0 0.0 0.00 0.00 0.00 79 1018.0
20260901050457 77 234 0.0 0.0 0.00 0.00 0.00 79 1017.9
20260901050257 77 234 0.0 0.0 0.00 0.00 0.00 79 1017.9
20260901050157 77 234 0.0 0.0 0.00 0.00 0.00 79 1018.0
20260901050059 77 234 0.0 0.0 0.00 0.00 0.00 79 1017.9
20260901045957 77 234 0.0 0.0 0.00 0.00 0.00 79 1017.9
20260901045858 77 234 0.0 0.0 0.00 0.00 0.00 79 1018.0
20260901045757 77 234 0.0 0.0 0.00 0.00 0.00 79 1018.0
20260901045558 77 234 0.0 0.0 0.00 0.00 0.00 79 1018.0
20260901045457 77 234 0.0 0.0 0.00 0.00 0.00 79 1018.0
20260901045359 77 234 0.0 0.0 0.00 0.00 0.00 79 1017.9
20260901045257 77 234 0.0 0.0 0.00 0.00 0.00 79 1018.0
20260901045156 77 234 0.0 0.0 0.00 0.00 0.00 79 1018.1
20260901045059 77 234 0.0 0.0 0.00 0.00 0.00 79 1018.1
20260901044958 77 234 0.0 0.0 0.00 0.00 0.00 79 1018.1
20260901044857 77 234 0.0 0.0 0.00 0.00 0.00 78 1018.1
20260901044756 77 234 0.0 0.0 0.00 0.00 0.00 78 1018.1
20260901044658 77 234 0.0 0.0 0.00 0.00 0.00 79 1018.1
20260901044557 77 234 0.0 0.0 0.00 0.00 0.00 78 1018.1
20260901044456 77 234 0.0 0.0 0.00 0.00 0.00 78 1018.1
20260901044357 77 234 0.0 0.0 0.00 0.00 0.00 78 1018.0
20260901044257 77 234 0.0 0.0 0.00 0.00 0.00 78 1018.1
20260901044158 77 234 0.0 0.0 0.00 0.00 0.00 78 1018.0
20260901044100 78 234 0.0 0.0 0.00 0.00 0.00 78 1018.1
20260901043957 78 234 0.0 0.0 0.00 0.00 0.00 78 1018.1
20260901043858 78 234 0.0 0.0 0.00 0.00 0.00 78 1018.1
20260901043758 78 234 0.0 0.0 0.00 0.00 0.00 78 1018.1
20260901043657 78 234 0.0 0.0 0.00 0.00 0.00 78 1018.0
20260901043556 78 234 0.0 0.0 0.00 0.00 0.00 78 1018.1
20260901043458 78 234 0.0 0.0 0.00 0.00 0.00 78 1018.1
20260901043158 78 234 0.0 0.0 0.00 0.00 0.00 78 1018.1
20260901043059 78 234 0.0 0.0 0.00 0.00 0.00 78 1018.1
20260901042959 78 234 0.0 0.0 0.00 0.00 0.00 78 1018.1
20260901042858 78 234 0.0 0.0 0.00 0.00 0.00 78 1018.1
20260901042758 78 234 0.0 0.0 0.00 0.00 0.00 77 1018.1
20260901042658 78 234 0.0 0.0 0.00 0.00 0.00 77 1018.1
20260901042558 78 234 0.0 0.0 0.00 0.00 0.00 77 1018.1
20260901042459 78 234 0.0 0.0 0.00 0.00 0.00 77 1018.2
20260901042357 78 234 0.0 0.0 0.00 0.00 0.00 77 1018.1
20260901042300 78 234 0.0 0.0 0.00 0.00 0.00 77 1018.1
20260901042158 78 234 0.0 0.0 0.00 0.00 0.00 77 1018.1
20260901042058 78 234 0.0 0.0 0.00 0.00 0.00 77 1018.0
20260901041958 78 234 0.0 0.0 0.00 0.00 0.00 77 1018.0
20260901041759 78 234 0.0 0.0 0.00 0.00 0.00 77 1018.1
20260901041657 78 234 0.0 0.0 0.00 0.00 0.00 77 1018.1
20260901041558 78 234 0.0 0.0 0.00 0.00 0.00 78 1018.0
20260901041458 78 234 0.0 0.0 0.00 0.00 0.00 78 1018.0
20260901041358 78 234 0.0 0.0 0.00 0.00 0.00 77 1018.1
20260901041200 78 234 0.0 0.0 0.00 0.00 0.00 77 1018.1
20260901041058 78 234 0.0 0.0 0.00 0.00 0.00 77 1018.1
20260901040957 78 233 0.0 0.0 0.00 0.00 0.00 77 1018.1
20260901040859 78 233 0.0 0.0 0.00 0.00 0.00 77 1018.1
20260901040758 78 233 0.0 0.0 0.00 0.00 0.00 78 1018.0
20260901040658 78 233 0.0 0.0 0.00 0.00 0.00 78 1018.0
20260901040559 78 233 0.0 0.0 0.00 0.00 0.00 78 1018.0
20260901040458 78 233 0.0 0.0 0.00 0.00 0.00 78 1018.0
20260901040359 78 233 0.0 0.0 0.00 0.00 0.00 78 1018.1
20260901040257 78 233 0.0 0.0 0.00 0.00 0.00 78 1018.0
20260901040158 78 233 0.0 0.0 0.00 0.00 0.00 78 1018.0
20260901040056 78 233 0.0 0.0 0.00 0.00 0.00 78 1018.1
20260901040006 78 233 0.0 0.0 0.00 0.00 0.00 78 1018.1
20260901035859 78 233 0.0 0.0 0.00 0.00 0.00 78 1018.2
20260901035759 78 233 0.0 0.0 0.00 0.00 0.00 78 1018.1
20260901035559 78 196 0.0 0.0 0.00 0.00 0.00 78 1018.2
20260901035458 78 196 0.0 0.0 0.00 0.00 0.00 78 1018.1
20260901035359 78 196 0.0 0.0 0.00 0.00 0.00 78 1018.1
20260901035259 78 196 0.0 0.0 0.00 0.00 0.00 78 1018.1
20260901035200 78 196 0.0 0.0 0.00 0.00 0.00 78 1018.1
20260901035058 78 196 0.0 0.0 0.00 0.00 0.00 78 1018.2
20260901034959 78 196 0.0 0.0 0.00 0.00 0.00 78 1018.1
20260901034859 78 196 0.0 0.0 0.00 0.00 0.00 78 1018.2
20260901034700 78 196 0.0 0.0 0.00 0.00 0.00 78 1018.2
20260901034559 78 196 0.0 0.0 0.00 0.00 0.00 78 1018.2
20260901034458 78 196 0.0 0.0 0.00 0.00 0.00 78 1018.1
20260901034258 78 196 0.0 0.0 0.00 0.00 0.00 78 1018.2
20260901034159 78 196 0.0 0.0 0.00 0.00 0.00 78 1018.2
20260901034100 78 196 0.0 0.0 0.00 0.00 0.00 79 1018.1
20260901033858 78 196 0.0 0.0 0.00 0.00 0.00 79 1018.1
20260901033759 78 196 0.0 0.0 0.00 0.00 0.00 79 1018.2
20260901033659 78 196 0.0 0.0 0.00 0.00 0.00 79 1018.2
20260901033600 78 196 0.0 0.0 0.00 0.00 0.00 79 1018.3
20260901033459 78 196 0.0 0.0 0.00 0.00 0.00 78 1018.3
20260901033401 78 196 0.0 0.0 0.00 0.00 0.00 78 1018.3
20260901033259 78 196 0.0 0.0 0.00 0.00 0.00 78 1018.3
20260901033158 78 196 0.0 0.0 0.00 0.00 0.00 78 1018.4
20260901033059 78 196 0.0 0.0 0.00 0.00 0.00 78 1018.3
20260901032859 78 196 0.0 0.0 0.00 0.00 0.00 79 1018.4
20260901032759 78 196 0.0 0.0 0.00 0.00 0.00 78 1018.4
20260901032700 78 196 0.0 0.0 0.00 0.00 0.00 78 1018.4
20260901032558 78 196 0.0 0.0 0.00 0.00 0.00 78 1018.4
20260901032459 78 196 0.0 0.0 0.00 0.00 0.00 78 1018.4
20260901032358 78 196 0.0 0.0 0.00 0.00 0.00 78 1018.4
20260901032258 78 196 0.0 0.0 0.00 0.00 0.00 78 1018.5
20260901032159 78 196 0.0 0.0 0.00 0.00 0.00 78 1018.4
20260901032101 78 196 0.0 0.0 0.00 0.00 0.00 78 1018.4
20260901031959 78 196 0.0 0.0 0.00 0.00 0.00 78 1018.5
20260901031858 78 196 0.0 0.0 0.00 0.00 0.00 78 1018.4
20260901031759 78 196 0.0 0.0 0.00 0.00 0.00 78 1018.4
20260901031659 78 196 0.0 0.0 0.00 0.00 0.00 78 1018.4
20260901031600 78 196 0.0 0.0 0.00 0.00 0.00 78 1018.4
20260901031458 78 196 0.0 0.0 0.00 0.00 0.00 78 1018.3
20260901031359 78 196 0.0 0.0 0.00 0.00 0.00 78 1018.4
20260901031159 78 196 0.0 0.0 0.00 0.00 0.00 78 1018.4
20260901031059 78 196 0.0 0.0 0.00 0.00 0.00 78 1018.4
20260901030959 78 196 0.0 0.0 0.00 0.00 0.00 78 1018.3
20260901030859 78 196 0.0 0.0 0.00 0.00 0.00 78 1018.4
20260901030800 78 196 0.0 0.0 0.00 0.00 0.00 78 1018.4
20260901030358 79 196 0.0 0.0 0.00 0.00 0.00 78 1018.3
20260901030259 79 196 0.0 0.0 0.00 0.00 0.00 78 1018.2
20260901030204 79 196 0.0 0.0 0.00 0.00 0.00 78 1018.2
20260901025901 79 196 0.0 0.0 0.00 0.00 0.00 78 1018.2
20260901025802 79 196 0.0 0.0 0.00 0.00 0.00 78 1018.2
20260901025702 79 196 0.0 0.0 0.00 0.00 0.00 78 1018.2
20260901025602 79 196 0.0 0.0 0.00 0.00 0.00 78 1018.2
20260901025502 79 196 0.0 0.0 0.00 0.00 0.00 78 1018.2
20260901025202 79 196 0.0 0.0 0.00 0.00 0.00 78 1018.2
20260901025004 79 196 0.0 0.0 0.00 0.00 0.00 78 1018.3
20260901024703 79 196 0.0 0.0 0.00 0.00 0.00 78 1018.4
20260901024604 79 196 0.0 0.0 0.00 0.00 0.00 78 1018.4
20260901024502 79 196 0.0 0.0 0.00 0.00 0.00 78 1018.4
20260901024402 79 196 0.0 0.0 0.00 0.00 0.00 78 1018.4
20260901024302 79 196 0.0 0.0 0.00 0.00 0.00 78 1018.5
20260901024202 79 196 0.0 0.0 0.00 0.00 0.00 78 1018.4
20260901024101 79 196 0.0 0.0 0.00 0.00 0.00 78 1018.4
20260901024002 79 196 0.0 0.0 0.00 0.00 0.00 78 1018.5
20260901023902 79 196 0.0 0.0 0.00 0.00 0.00 78 1018.4
20260901023802 79 196 0.0 0.0 0.00 0.00 0.00 78 1018.4
20260901023704 79 196 0.0 0.0 0.00 0.00 0.00 77 1018.4
20260901023602 79 196 0.0 0.0 0.00 0.00 0.00 78 1018.5
20260901023502 79 196 0.0 0.0 0.00 0.00 0.00 77 1018.5
20260901023401 79 196 0.0 0.0 0.00 0.00 0.00 78 1018.4
20260901023301 79 196 0.0 0.0 0.00 0.00 0.00 77 1018.4
20260901023202 79 196 0.0 0.0 0.00 0.00 0.00 78 1018.4
20260901023102 79 196 0.0 0.0 0.00 0.00 0.00 77 1018.5
20260901023002 79 196 0.0 0.0 0.00 0.00 0.00 78 1018.4
20260901022903 79 196 0.0 0.0 0.00 0.00 0.00 78 1018.4
20260901022802 79 196 0.0 0.0 0.00 0.00 0.00 78 1018.4
20260901022702 79 196 0.0 0.0 0.00 0.00 0.00 78 1018.4
20260901022601 80 196 0.0 0.0 0.00 0.00 0.00 78 1018.4
20260901022502 80 196 0.0 0.0 0.00 0.00 0.00 78 1018.4
20260901022402 80 196 0.0 0.0 0.00 0.00 0.00 77 1018.4
20260901022305 80 196 0.0 0.0 0.00 0.00 0.00 77 1018.5
20260901022202 80 196 0.0 0.0 0.00 0.00 0.00 77 1018.4
20260901022101 80 196 0.0 0.0 0.00 0.00 0.00 77 1018.4
20260901021903 80 196 0.0 0.0 0.00 0.00 0.00 77 1018.4
20260901021801 80 196 0.0 0.0 0.00 0.00 0.00 77 1018.4
20260901021701 80 196 0.0 0.0 0.00 0.00 0.00 77 1018.4
20260901021602 80 196 0.0 0.0 0.00 0.00 0.00 77 1018.3
20260901021503 80 196 0.0 0.0 0.00 0.00 0.00 77 1018.3
20260901021402 80 196 0.0 0.0 0.00 0.00 0.00 77 1018.3
20260901021305 80 196 0.0 0.0 0.00 0.00 0.00 77 1018.3
20260901021203 80 196 0.0 0.0 0.00 0.00 0.00 77 1018.2
20260901021102 80 196 0.0 0.0 0.00 0.00 0.00 77 1018.2
20260901021002 80 196 0.0 0.0 0.00 0.00 0.00 77 1018.2
20260901020802 80 196 0.0 0.0 0.00 0.00 0.00 76 1018.2
20260901020703 80 196 0.0 0.0 0.00 0.00 0.00 76 1018.2
20260901020603 80 196 0.0 0.0 0.00 0.00 0.00 76 1018.1
20260901020501 80 196 0.0 0.0 0.00 0.00 0.00 76 1018.1
20260901020403 80 196 0.0 0.0 0.00 0.00 0.00 77 1018.1
20260901020302 80 196 0.0 0.0 0.00 0.00 0.00 76 1018.2
20260901020203 80 196 0.0 0.0 0.00 0.00 0.00 76 1018.2
20260901020004 80 196 0.0 0.0 0.00 0.00 0.00 76 1018.2
20260901015902 80 196 0.0 0.0 0.00 0.00 0.00 76 1018.3
20260901015803 80 196 0.0 0.0 0.00 0.00 0.00 76 1018.3
20260901015702 80 196 0.0 0.0 0.00 0.00 0.00 76 1018.3
20260901015602 80 196 0.0 0.0 0.00 0.00 0.00 76 1018.2
20260901015502 80 196 0.0 0.0 0.00 0.00 0.00 76 1018.3
20260901015403 81 196 0.0 0.0 0.00 0.00 0.00 76 1018.2
20260901015305 81 196 0.0 0.0 0.00 0.00 0.00 75 1018.2
20260901015203 81 196 0.0 0.0 0.00 0.00 0.00 75 1018.2
20260901015101 81 196 0.0 0.0 0.00 0.00 0.00 75 1018.2
20260901014903 81 196 0.0 0.0 0.00 0.00 0.00 75 1018.2
20260901014802 81 196 0.0 0.0 0.00 0.00 0.00 75 1018.2
20260901014702 81 196 0.0 0.0 0.00 0.00 0.00 75 1018.2
20260901014602 81 196 0.0 0.0 0.00 0.00 0.00 75 1018.1
20260901014504 81 196 0.0 0.0 0.00 0.00 0.00 75 1018.2
20260901014403 81 196 0.0 0.0 0.00 0.00 0.00 75 1018.2
20260901014302 81 196 0.0 0.0 0.00 0.00 0.00 75 1018.2
20260901014202 81 196 0.0 0.0 0.00 0.00 0.00 75 1018.2
20260901014102 81 196 0.0 0.0 0.00 0.00 0.00 75 1018.1
20260901014002 81 196 0.0 0.0 0.00 0.00 0.00 74 1018.2
20260901013901 81 196 0.0 0.0 0.00 0.00 0.00 74 1018.1
20260901013802 81 196 0.0 0.0 0.00 0.00 0.00 74 1018.2
20260901013703 81 196 0.0 0.0 0.00 0.00 0.00 74 1018.2
20260901013502 81 196 0.0 0.0 0.00 0.00 0.00 74 1018.1
20260901013402 81 196 0.0 0.0 0.00 0.00 0.00 74 1018.1
20260901013302 81 196 0.0 0.0 0.00 0.00 0.00 74 1018.1
20260901013201 81 196 0.0 0.0 0.00 0.00 0.00 74 1018.1
20260901013104 81 196 0.0 0.0 0.00 0.00 0.00 74 1018.1
20260901012902 82 196 0.0 0.0 0.00 0.00 0.00 74 1018.1
20260901012803 82 196 0.0 0.0 0.00 0.00 0.00 74 1018.0
20260901012702 82 196 0.0 0.0 0.00 0.00 0.00 74 1018.0
20260901012604 82 196 0.0 0.0 0.00 0.00 0.00 73 1018.0
20260901012306 82 196 0.0 0.0 0.00 0.00 0.00 73 1018.0
20260901012102 82 196 0.0 0.0 0.00 0.00 0.00 72 1018.1
20260901012002 82 196 0.0 0.0 0.00 0.00 0.00 72 1018.0
20260901011901 82 196 0.0 0.0 0.00 0.00 0.00 71 1018.1
20260901011804 82 196 0.0 0.0 0.00 0.00 0.00 72 1018.0
20260901011702 82 196 0.0 0.0 0.00 0.00 0.00 72 1018.0
20260901011603 82 196 0.0 0.0 0.00 0.00 0.00 71 1018.0
20260901011501 82 196 0.0 0.0 0.00 0.00 0.00 71 1018.0
20260901011404 83 196 0.0 0.0 0.00 0.00 0.00 71 1017.9
20260901011301 83 196 0.0 0.0 0.00 0.00 0.00 71 1017.9
20260901011202 83 196 0.0 0.0 0.00 0.00 0.00 71 1017.9
20260901011102 83 196 0.0 0.0 0.00 0.00 0.00 71 1018.0
20260901011002 83 196 0.0 0.0 0.00 0.00 0.00 71 1017.9
20260901010903 83 196 0.0 0.0 0.00 0.00 0.00 70 1017.9
20260901010703 83 196 0.0 0.0 0.00 0.00 0.00 70 1017.8
20260901010502 83 196 0.0 0.0 0.00 0.00 0.00 70 1017.8
20260901010402 83 196 0.0 0.0 0.00 0.00 0.00 70 1017.8
20260901010303 83 196 0.0 0.0 0.00 0.00 0.00 70 1017.8
20260901010202 83 196 0.0 0.0 0.00 0.00 0.00 70 1017.7
20260901010103 83 196 0.0 0.0 0.00 0.00 0.00 70 1017.7
20260901010003 83 196 0.0 0.0 0.00 0.00 0.00 70 1017.7
20260901005902 83 196 0.0 0.0 0.00 0.00 0.00 70 1017.7
20260901005703 84 196 0.0 0.0 0.00 0.00 0.00 69 1017.7
20260901005602 84 196 0.0 0.0 0.00 0.00 0.00 69 1017.7
20260901005503 84 196 0.0 0.0 0.00 0.00 0.00 69 1017.7
20260901005306 84 196 0.0 0.0 0.00 0.00 0.00 69 1017.7
20260901005202 84 196 0.0 0.0 0.00 0.00 0.00 69 1017.6
20260901005104 84 221 0.0 0.0 0.00 0.00 0.00 69 1017.6
20260901005001 84 196 0.0 0.0 0.00 0.00 0.00 69 1017.5
20260901004702 84 194 0.0 0.0 0.00 0.00 0.00 69 1017.5
20260901004601 84 194 0.0 0.0 0.00 0.00 0.00 69 1017.5
20260901004505 84 194 0.0 0.0 0.00 0.00 0.00 68 1017.4
20260901004402 84 204 0.0 0.0 0.00 0.00 0.00 68 1017.4
20260901004302 84 204 0.0 0.0 0.00 0.00 0.00 68 1017.4
20260901004203 84 204 0.0 0.0 0.00 0.00 0.00 68 1017.4
20260901004101 84 204 0.0 0.0 0.00 0.00 0.00 68 1017.4
20260901003902 84 174 0.0 0.0 0.00 0.00 0.00 68 1017.4
20260901003802 84 174 0.0 0.0 0.00 0.00 0.00 68 1017.4
20260901003702 84 322 0.0 0.0 0.00 0.00 0.00 68 1017.4
20260901003503 85 250 0.0 0.0 0.00 0.00 0.00 68 1017.4
20260901003402 85 257 0.0 0.0 0.00 0.00 0.00 68 1017.4
20260901003302 85 257 0.0 0.0 0.00 0.00 0.00 68 1017.4
20260901003103 85 203 0.0 1.0 0.00 0.00 0.00 68 1017.4
20260901002902 85 201 0.0 1.0 0.00 0.00 0.00 67 1017.4
20260901002801 85 273 0.0 1.0 0.00 0.00 0.00 68 1017.4
20260901002702 85 194 0.0 2.0 0.00 0.00 0.00 67 1017.3
20260901002603 85 194 0.0 2.0 0.00 0.00 0.00 67 1017.2
20260901002502 85 209 0.0 2.0 0.00 0.00 0.00 67 1017.3
20260901002401 85 209 0.0 2.0 0.00 0.00 0.00 67 1017.3
20260901002305 85 209 1.0 2.0 0.00 0.00 0.00 67 1017.3
20260901002202 85 193 0.0 2.0 0.00 0.00 0.00 67 1017.3
20260901002102 85 211 0.0 3.0 0.00 0.00 0.00 67 1017.2
20260901002002 85 211 0.0 3.0 0.00 0.00 0.00 67 1017.2
20260901001904 85 204 0.0 3.0 0.00 0.00 0.00 67 1017.2
20260901001801 85 219 0.0 3.0 0.00 0.00 0.00 66 1017.2
20260901001703 85 220 0.0 3.0 0.00 0.00 0.00 66 1017.2
20260901001603 85 189 0.0 3.0 0.00 0.00 0.00 66 1017.1
20260901001501 85 189 0.0 3.0 0.00 0.00 0.00 66 1017.2
20260901001401 85 202 2.0 3.0 0.00 0.00 0.00 66 1017.1
20260901001303 86 297 0.0 3.0 0.00 0.00 0.00 66 1017.1
20260901001202 86 225 0.0 3.0 0.00 0.00 0.00 66 1017.2
20260901001102 86 63 0.0 3.0 0.00 0.00 0.00 66 1017.1
20260901001003 86 170 0.0 3.0 0.00 0.00 0.00 66 1017.2
20260901000902 86 170 0.0 4.0 0.00 0.00 0.00 66 1017.1
20260901000804 86 204 1.0 2.0 0.00 0.00 0.00 66 1017.0
20260901000703 86 257 0.0 2.0 0.00 0.00 0.00 65 1017.1
20260901000501 86 220 1.0 2.0 0.00 0.00 0.00 65 1017.1
20260901000402 86 277 1.0 2.0 0.00 0.00 0.00 65 1017.0
20260901000303 86 176 0.0 3.0 0.00 0.00 0.00 65 1017.0
20260901000005 86 190 0.0 3.0 0.00 0.00 0.00 65 1017.0
20260831235902 86 217 0.0 5.0 0.00 0.00 0.00 65 1017.0
20260831235801 86 224 0.0 5.0 0.00 0.00 0.00 65 1017.0
20260831235602 86 258 0.0 5.0 0.00 0.00 0.00 64 1016.9
20260831235501 86 244 1.0 5.0 0.00 0.00 0.00 65 1016.9
20260831235403 86 177 0.0 5.0 0.00 0.00 0.00 65 1016.9
20260831235301 86 198 0.0 5.0 0.00 0.00 0.00 65 1016.9
20260831235202 86 186 0.0 5.0 0.00 0.00 0.00 64 1016.9
20260831235103 86 232 0.0 5.0 0.00 0.00 0.00 64 1016.9
20260831235002 86 150 1.0 5.0 0.00 0.00 0.00 64 1017.0
20260831234902 87 169 0.0 5.0 0.00 0.00 0.00 64 1016.9
20260831234803 86 244 0.0 5.0 0.00 0.00 0.00 64 1017.0
20260831234602 87 190 1.0 6.0 0.00 0.00 0.00 64 1017.0
20260831234503 87 178 0.0 6.0 0.00 0.00 0.00 64 1016.9
20260831234401 87 178 1.0 6.0 0.00 0.00 0.00 64 1016.9
20260831234302 87 197 4.0 6.0 0.00 0.00 0.00 64 1016.9
20260831234201 87 119 2.0 2.0 0.00 0.00 0.00 64 1016.9
20260831234103 87 166 0.0 3.0 0.00 0.00 0.00 64 1016.8
20260831234002 87 207 0.0 3.0 0.00 0.00 0.00 64 1016.8
20260831233802 87 277 0.0 3.0 0.00 0.00 0.00 63 1016.7
20260831233702 87 184 0.0 3.0 0.00 0.00 0.00 64 1016.8
20260831233602 87 194 0.0 3.0 0.00 0.00 0.00 63 1016.7
20260831233501 87 145 0.0 3.0 0.00 0.00 0.00 63 1016.6
20260831233403 87 182 0.0 8.0 0.00 0.00 0.00 63 1016.6
20260831233302 87 166 0.0 8.0 0.00 0.00 0.00 63 1016.8
20260831233202 87 144 3.0 8.0 0.00 0.00 0.00 64 1016.7
20260831233103 87 308 0.0 8.0 0.00 0.00 0.00 63 1016.7
20260831233003 87 206 0.0 8.0 0.00 0.00 0.00 63 1016.8
20260831232902 87 155 0.0 8.0 0.00 0.00 0.00 63 1016.7
20260831232604 87 304 2.0 8.0 0.00 0.00 0.00 63 1016.8
20260831232502 87 199 4.0 6.0 0.00 0.00 0.00 63 1016.8
20260831232305 87 155 1.0 5.0 0.00 0.00 0.00 63 1016.8
20260831232203 87 155 2.0 5.0 0.00 0.00 0.00 63 1016.8
20260831232102 88 161 0.0 5.0 0.00 0.00 0.00 63 1016.8
20260831232001 88 150 2.0 5.0 0.00 0.00 0.00 63 1016.9
20260831231903 88 144 1.0 3.0 0.00 0.00 0.00 63 1016.9
20260831231602 88 148 0.0 4.0 0.00 0.00 0.00 63 1016.9
20260831231401 88 207 1.0 5.0 0.00 0.00 0.00 62 1016.9
20260831231302 88 347 0.0 5.0 0.00 0.00 0.00 62 1016.9
20260831231201 88 321 0.0 5.0 0.00 0.00 0.00 62 1016.9
20260831231104 88 325 2.0 5.0 0.00 0.00 0.00 62 1016.9
20260831231003 88 228 0.0 5.0 0.00 0.00 0.00 62 1016.9
20260831230902 88 198 3.0 5.0 0.00 0.00 0.00 62 1016.9
20260831230801 88 162 1.0 5.0 0.00 0.00 0.00 61 1016.9
20260831230703 88 183 3.0 6.0 0.00 0.00 0.00 62 1016.9
20260831230503 88 212 0.0 4.0 0.00 0.00 0.00 62 1016.9
20260831230401 88 212 2.0 4.0 0.00 0.00 0.00 62 1016.9
20260831230003 89 208 0.0 4.0 0.00 0.00 0.00 62 1016.9
20260831225902 89 169 0.0 4.0 0.00 0.00 0.00 61 1016.9
20260831225801 89 279 0.0 4.0 0.00 0.00 0.00 61 1016.9
20260831225702 89 211 0.0 2.0 0.00 0.00 0.00 61 1016.9
20260831225602 89 153 0.0 2.0 0.00 0.00 0.00 61 1016.9
20260831225502 89 166 0.0 2.0 0.00 0.00 0.00 61 1016.9
20260831225403 89 172 0.0 2.0 0.00 0.00 0.00 61 1017.0
20260831225305 89 236 0.0 2.0 0.00 0.00 0.00 61 1016.9
20260831225202 89 232 0.0 2.0 0.00 0.00 0.00 60 1016.9
20260831225104 89 221 2.0 4.0 0.00 0.00 0.00 61 1016.9
20260831225002 89 192 0.0 4.0 0.00 0.00 0.00 61 1017.1
20260831224903 89 189 0.0 5.0 0.00 0.00 0.00 60 1017.0
20260831224702 89 138 1.0 5.0 0.00 0.00 0.00 61 1017.1
20260831224602 89 201 0.0 5.0 0.00 0.00 0.00 60 1017.1
20260831224502 89 201 0.0 5.0 0.00 0.00 0.00 60 1017.0
20260831224301 89 207 1.0 5.0 0.00 0.00 0.00 59 1017.1
20260831224102 89 298 0.0 5.0 0.00 0.00 0.00 59 1017.0
20260831224003 89 194 0.0 7.0 0.00 0.00 0.00 60 1017.1
20260831223902 89 195 1.0 7.0 0.00 0.00 0.00 60 1017.1
20260831223801 89 302 0.0 7.0 0.00 0.00 0.00 59 1017.1
20260831223703 90 184 3.0 7.0 0.00 0.00 0.00 59 1017.2
20260831223602 90 315 0.0 7.0 0.00 0.00 0.00 59 1017.2
20260831223504 90 191 0.0 7.0 0.00 0.00 0.00 59 1017.1
20260831223403 90 258 0.0 7.0 0.00 0.00 0.00 59 1017.2
20260831223302 90 196 2.0 7.0 0.00 0.00 0.00 58 1017.2
20260831223200 90 146 2.0 7.0 0.00 0.00 0.00 59 1017.1
20260831223000 90 216 1.0 4.0 0.00 0.00 0.00 59 1017.1
20260831222903 90 277 2.0 4.0 0.00 0.00 0.00 59 1017.1
20260831222801 90 200 2.0 4.0 0.00 0.00 0.00 59 1017.1
20260831222701 90 196 2.0 4.0 0.00 0.00 0.00 59 1017.2
20260831222601 90 169 1.0 4.0 0.00 0.00 0.00 59 1017.1
20260831222501 90 341 1.0 4.0 0.00 0.00 0.00 58 1017.2
20260831222400 90 304 2.0 4.0 0.00 0.00 0.00 59 1017.1
20260831222306 90 240 0.0 4.0 0.00 0.00 0.00 58 1017.1
20260831222201 90 292 1.0 4.0 0.00 0.00 0.00 58 1017.3
20260831222001 90 240 0.0 4.0 0.00 0.00 0.00 58 1017.3
20260831221902 90 177 0.0 4.0 0.00 0.00 0.00 58 1017.3
20260831221701 90 214 1.0 5.0 0.00 0.00 0.00 58 1017.4
20260831221502 90 252 0.0 6.0 0.00 0.00 0.00 58 1017.5
20260831221402 91 252 3.0 6.0 0.00 0.00 0.00 59 1017.5
20260831221202 91 176 0.0 6.0 0.00 0.00 0.00 57 1017.5
20260831221001 91 187 1.0 6.0 0.00 0.00 0.00 58 1017.5
20260831220901 91 154 1.0 6.0 0.00 0.00 0.00 57 1017.5
20260831220801 91 211 3.0 6.0 0.00 0.00 0.00 56 1017.5
20260831220701 91 184 3.0 6.0 0.00 0.00 0.00 56 1017.6
20260831220502 92 231 0.0 5.0 0.00 0.00 0.00 56 1017.6
20260831220400 92 189 0.0 5.0 0.00 0.00 0.00 57 1017.5
20260831220301 92 303 0.0 5.0 0.00 0.00 0.00 56 1017.6
20260831220201 92 177 0.0 5.0 0.00 0.00 0.00 56 1017.5
20260831220100 92 189 3.0 5.0 0.00 0.00 0.00 56 1017.5
20260831215801 92 307 0.0 4.0 0.00 0.00 0.00 56 1017.5
20260831215700 92 290 1.0 4.0 0.00 0.00 0.00 56 1017.5
20260831215501 92 150 1.0 3.0 0.00 0.00 0.00 56 1017.6
20260831215401 92 198 0.0 3.0 0.00 0.00 0.00 56 1017.6
20260831215104 92 163 0.0 4.0 0.00 0.00 0.00 56 1017.6
20260831215000 92 184 1.0 4.0 0.00 0.00 0.00 55 1017.7
20260831214904 92 264 1.0 4.0 0.00 0.00 0.00 56 1017.6
20260831214801 92 217 0.0 4.0 0.00 0.00 0.00 56 1017.7
20260831214604 92 217 0.0 4.0 0.00 0.00 0.00 55 1017.6
20260831214501 93 209 0.0 4.0 0.00 0.00 0.00 55 1017.7
20260831214400 93 175 0.0 1.0 0.00 0.00 0.00 55 1017.8
20260831214302 93 193 0.0 1.0 0.00 0.00 0.00 55 1017.6
20260831214201 93 204 0.0 2.0 0.00 0.00 0.00 56 1017.6
20260831214001 93 285 0.0 3.0 0.00 0.00 0.00 54 1017.7
20260831213901 93 211 0.0 3.0 0.00 0.00 0.00 55 1017.7
20260831213700 93 331 0.0 5.0 0.00 0.00 0.00 56 1017.7
20260831213600 93 331 0.0 5.0 0.00 0.00 0.00 56 1017.7
20260831213501 93 255 0.0 5.0 0.00 0.00 0.00 55 1017.7
20260831213400 93 252 0.0 5.0 0.00 0.00 0.00 56 1017.8
20260831213300 93 275 1.0 5.0 0.00 0.00 0.00 55 1017.8
20260831213201 93 284 0.0 5.0 0.00 0.00 0.00 55 1017.8
20260831213100 93 184 0.0 5.0 0.00 0.00 0.00 56 1017.8
20260831213000 93 184 1.0 5.0 0.00 0.00 0.00 56 1017.7
20260831212801 93 182 0.0 4.0 0.00 0.00 0.00 56 1017.7
20260831212700 93 300 0.0 4.0 0.00 0.00 0.00 56 1017.7
20260831212600 93 292 4.0 4.0 0.00 0.00 0.00 55 1017.7
20260831212501 93 173 2.0 3.0 0.00 0.00 0.00 55 1017.7
20260831212401 93 218 0.0 4.0 0.00 0.00 0.00 55 1017.7
20260831212201 93 182 0.0 4.0 0.00 0.00 0.00 56 1017.6
20260831212101 93 182 2.0 4.0 0.00 0.00 0.00 56 1017.7
20260831211902 93 235 0.0 4.0 0.00 0.00 0.00 56 1017.8
20260831211801 93 145 0.0 4.0 0.00 0.00 0.00 57 1017.6
20260831211703 93 206 0.0 5.0 0.00 0.00 0.00 55 1017.7
20260831211600 93 300 0.0 5.0 0.00 0.00 0.00 55 1017.7
20260831211501 92 259 1.0 5.0 0.00 0.00 0.00 56 1017.7
20260831211401 92 298 0.0 5.0 0.00 0.00 0.00 57 1017.7
20260831211301 92 290 0.0 5.0 0.00 0.00 0.00 56 1017.7
20260831211203 92 330 0.0 5.0 0.00 0.00 0.00 56 1017.8
20260831211001 92 232 0.0 5.0 0.00 0.00 0.00 56 1017.8
20260831210902 92 313 0.0 5.0 0.00 0.00 0.00 56 1017.8
20260831210801 92 294 4.0 4.0 0.00 0.00 0.00 57 1017.8
20260831210701 92 355 0.0 7.0 0.00 0.00 0.00 58 1017.9
20260831210601 92 279 0.0 9.0 0.00 0.00 0.00 57 1017.8
20260831210502 92 173 0.0 9.0 0.00 0.00 0.00 56 1017.8
20260831210402 92 219 0.0 9.0 0.00 0.00 0.00 56 1017.8
20260831210303 92 138 0.0 9.0 0.00 0.00 0.00 55 1017.9
20260831210202 92 116 1.0 9.0 0.00 0.00 0.00 55 1018.0
20260831210002 92 188 3.0 9.0 0.00 0.00 0.00 55 1018.1
20260831205901 92 194 2.0 9.0 0.00 0.00 0.00 54 1018.0
20260831205701 93 196 6.0 9.0 0.00 0.00 0.00 54 1017.9
20260831205602 93 215 0.0 5.0 0.00 0.00 0.00 54 1018.0
20260831205501 93 178 2.0 5.0 0.00 0.00 0.00 56 1018.0
20260831205401 93 200 0.0 2.0 0.00 0.00 0.00 56 1018.0
20260831205305 93 184 0.0 1.0 0.00 0.00 0.00 55 1018.0
20260831205204 93 347 0.0 1.0 0.00 0.00 0.00 56 1018.0
20260831205100 93 333 0.0 1.0 0.00 0.00 0.00 56 1018.0
20260831205003 93 62 0.0 1.0 0.00 0.00 0.00 56 1018.0
20260831204904 93 337 0.0 1.0 0.00 0.00 0.00 58 1017.9
20260831204800 92 334 0.0 1.0 0.00 0.00 0.00 56 1017.9
20260831204700 92 92 0.0 1.0 0.00 0.00 0.00 56 1018.0
20260831204601 92 222 0.0 1.0 0.00 0.00 0.00 55 1018.0
20260831204500 92 329 0.0 1.0 0.00 0.00 0.00 57 1018.1
20260831204401 92 308 0.0 1.0 0.00 0.00 0.00 58 1018.0
20260831204201 92 161 0.0 1.0 0.00 0.00 0.00 57 1018.1
20260831204101 92 173 0.0 1.0 0.00 0.00 0.00 54 1018.0
20260831204002 92 175 0.0 1.0 0.00 0.00 0.00 54 1018.1
20260831203901 92 212 0.0 1.0 0.00 0.00 0.00 54 1018.1
20260831203801 93 274 0.0 1.0 0.00 0.00 0.00 54 1018.0
20260831203703 93 230 0.0 1.0 0.00 0.00 0.00 54 1018.1
20260831203601 93 280 0.0 1.0 0.00 0.00 0.00 54 1018.1
20260831203504 93 221 0.0 1.0 0.00 0.00 0.00 54 1018.1
20260831203300 93 328 0.0 1.0 0.00 0.00 0.00 54 1018.0
20260831203101 93 326 0.0 1.0 0.00 0.00 0.00 54 1018.1
20260831203001 93 315 0.0 3.0 0.00 0.00 0.00 54 1018.2
20260831202702 93 163 0.0 3.0 0.00 0.00 0.00 53 1018.2
20260831202602 93 67 0.0 3.0 0.00 0.00 0.00 54 1018.2
20260831202501 93 165 0.0 8.0 0.00 0.00 0.00 54 1018.2
20260831202301 93 296 0.0 8.0 0.00 0.00 0.00 55 1018.2
20260831202201 93 344 0.0 8.0 0.00 0.00 0.00 55 1018.1
20260831202101 92 285 2.0 8.0 0.00 0.00 0.00 54 1018.1
20260831202001 92 265 0.0 8.0 0.00 0.00 0.00 54 1018.2
20260831201900 92 150 0.0 8.0 0.00 0.00 0.00 54 1018.2
20260831201802 92 184 0.0 8.0 0.00 0.00 0.00 54 1018.2
20260831201702 92 139 8.0 8.0 0.00 0.00 0.00 54 1018.2
20260831201601 92 194 4.0 6.0 0.00 0.00 0.00 55 1018.2
20260831201501 92 247 0.0 6.0 0.00 0.00 0.00 55 1018.3
20260831201302 92 190 0.0 6.0 0.00 0.00 0.00 54 1018.3
20260831201201 92 242 5.0 6.0 0.00 0.00 0.00 53 1018.3
20260831201101 92 190 3.0 6.0 0.00 0.00 0.00 53 1018.3
20260831201001 92 209 2.0 6.0 0.00 0.00 0.00 54 1018.3
20260831200902 93 275 4.0 6.0 0.00 0.00 0.00 52 1018.3
20260831200801 93 188 4.0 6.0 0.00 0.00 0.00 52 1018.3
20260831200601 93 163 5.0 6.0 0.00 0.00 0.00 53 1018.4
20260831200401 93 169 1.0 9.0 0.00 0.00 0.00 53 1018.4
20260831200304 93 146 1.0 9.0 0.00 0.00 0.00 52 1018.4
20260831200201 93 200 2.0 9.0 0.00 0.00 0.00 52 1018.5
20260831200004 93 190 3.0 9.0 0.00 0.00 0.00 53 1018.4
20260831195904 93 183 2.0 9.0 0.00 0.00 0.00 53 1018.5
20260831195802 93 262 2.0 9.0 0.00 0.00 0.00 54 1018.4
20260831195702 93 298 7.0 7.0 0.00 0.00 0.00 54 1018.5
20260831195502 93 200 1.0 5.0 0.00 0.00 0.00 51 1018.5
20260831195402 93 84 0.0 5.0 0.00 0.00 0.00 53 1018.5
20260831195306 93 174 0.0 5.0 0.00 0.00 0.00 51 1018.5
20260831195002 93 147 1.0 7.0 0.00 0.00 0.00 52 1018.6
20260831194802 93 150 2.0 14.0 0.00 0.00 0.00 52 1018.6
20260831194701 93 157 1.0 14.0 0.00 0.00 0.00 52 1018.6
20260831194602 93 325 0.0 14.0 0.00 0.00 0.00 51 1018.7
20260831194502 93 194 4.0 14.0 0.00 0.00 0.00 51 1018.7
20260831194401 93 195 2.0 14.0 0.00 0.00 0.00 50 1018.7
20260831194302 93 137 2.0 14.0 0.00 0.00 0.00 50 1018.7
20260831194201 93 139 3.0 14.0 0.00 0.00 0.00 50 1018.7
20260831194105 93 336 1.0 14.0 0.00 0.00 0.00 50 1018.7
20260831194003 93 177 2.0 14.0 0.00 0.00 0.00 51 1018.7
20260831193802 93 360 2.0 8.0 0.00 0.00 0.00 53 1018.7
20260831193703 93 136 0.0 8.0 0.00 0.00 0.00 51 1018.7
20260831193602 93 152 3.0 8.0 0.00 0.00 0.00 50 1018.8
20260831193503 93 161 4.0 8.0 0.00 0.00 0.00 51 1018.8
20260831193301 93 186 0.0 7.0 0.00 0.00 0.00 53 1018.7
20260831193201 93 186 0.0 7.0 0.00 0.00 0.00 53 1018.7
20260831193101 93 288 2.0 7.0 0.00 0.00 0.00 53 1018.8
20260831193001 93 338 0.0 7.0 0.00 0.00 0.00 52 1018.8
20260831192900 93 210 1.0 7.0 0.00 0.00 0.00 52 1018.8
20260831192601 93 177 3.0 6.0 0.00 0.00 0.00 53 1018.8
20260831192301 93 59 1.0 6.0 0.00 0.00 0.00 53 1018.8
20260831192101 93 323 5.0 6.0 0.00 0.00 0.00 53 1018.9
20260831192002 93 166 4.0 5.0 0.00 0.00 0.00 54 1018.8
20260831191600 92 111 1.0 10.0 0.00 0.00 0.00 52 1018.9
20260831191501 92 152 2.0 10.0 0.00 0.00 0.00 52 1019.0
20260831191400 92 180 5.0 10.0 0.00 0.00 0.00 52 1018.9
20260831191301 92 175 2.0 10.0 0.00 0.00 0.00 50 1018.9
20260831191100 92 241 0.0 10.0 0.00 0.00 0.00 52 1019.0
20260831191002 92 270 7.0 10.0 0.00 0.00 0.00 51 1019.0
20260831190700 92 186 2.0 7.0 0.00 0.00 0.00 52 1019.0
20260831190502 92 219 6.0 7.0 0.00 0.00 0.00 52 1019.0
20260831190402 92 263 2.0 6.0 0.00 0.00 0.00 55 1019.1
20260831190301 92 167 0.0 6.0 0.00 0.00 0.00 55 1019.0
20260831190204 92 328 4.0 8.0 0.00 0.00 0.00 55 1019.0
20260831190004 92 180 5.0 8.0 0.00 0.00 0.00 56 1018.9
20260831185802 92 180 0.0 8.0 0.00 0.00 0.00 56 1019.1
20260831185702 92 183 0.0 8.0 0.00 0.00 0.00 57 1019.0
20260831185605 92 239 0.0 8.0 0.00 0.00 0.00 56 1019.1
20260831185502 92 329 1.0 8.0 0.00 0.00 0.00 56 1019.1
20260831185402 92 301 2.0 10.0 0.00 0.00 0.00 59 1019.1
20260831185306 92 123 0.0 6.0 0.00 0.00 0.00 59 1019.1
20260831185201 91 179 0.0 6.0 0.00 0.00 0.00 58 1019.1
20260831185102 91 152 2.0 6.0 0.00 0.00 0.00 59 1019.2
20260831185001 91 202 1.0 6.0 0.00 0.00 0.00 60 1019.1
20260831184902 91 324 0.0 6.0 0.00 0.00 0.00 60 1019.2
20260831184803 91 233 0.0 6.0 0.00 0.00 0.00 60 1019.1
20260831184702 91 342 0.0 6.0 0.00 0.00 0.00 59 1019.2
20260831184604 91 313 1.0 9.0 0.00 0.00 0.00 60 1019.2
20260831184502 91 109 0.0 9.0 0.00 0.00 0.00 59 1019.2
20260831184402 91 161 1.0 9.0 0.00 0.00 0.00 60 1019.2
20260831184201 91 204 2.0 9.0 0.00 0.00 0.00 59 1019.2
20260831184103 91 174 0.0 9.0 0.00 0.00 0.00 59 1019.2
20260831184003 91 355 0.0 9.0 0.00 0.00 0.00 60 1019.2
20260831183902 91 240 4.0 9.0 0.00 0.00 0.00 60 1019.3
20260831183801 91 154 2.0 9.0 0.00 0.00 0.00 60 1019.3
20260831183703 90 296 9.0 9.0 0.00 0.00 0.00 59 1019.3
20260831183603 90 281 0.0 7.0 0.00 0.00 0.00 59 1019.4
20260831183502 90 197 0.0 7.0 0.00 0.00 0.00 58 1019.3
20260831183401 90 153 3.0 7.0 0.00 0.00 0.00 59 1019.3
20260831183303 90 207 2.0 7.0 0.00 0.00 0.00 58 1019.3
20260831183203 90 221 6.0 8.0 0.00 0.00 0.00 58 1019.3
20260831183102 90 200 5.0 6.0 0.00 0.00 0.00 58 1019.3
20260831182902 90 84 1.0 4.0 0.00 0.00 0.00 58 1019.3
20260831182802 90 41 1.0 4.0 0.00 0.00 0.00 60 1019.3
20260831182602 90 173 2.0 5.0 0.00 0.00 0.00 58 1019.4
20260831182501 90 159 2.0 5.0 0.00 0.00 0.00 59 1019.5
20260831182403 90 301 1.0 5.0 0.00 0.00 0.00 59 1019.5
20260831182202 90 263 0.0 7.0 0.00 0.00 0.00 58 1019.4
20260831182102 91 205 2.0 7.0 0.00 0.00 0.00 58 1019.5
20260831182003 91 178 2.0 7.0 0.00 0.00 0.00 59 1019.5
20260831181902 91 232 4.0 10.0 0.00 0.00 0.00 58 1019.5
20260831181803 91 246 1.0 10.0 0.00 0.00 0.00 58 1019.5
20260831181701 91 248 1.0 10.0 0.00 0.00 0.00 57 1019.5
20260831181601 91 185 1.0 10.0 0.00 0.00 0.00 57 1019.5
20260831181502 91 157 1.0 10.0 0.00 0.00 0.00 57 1019.4
20260831181403 91 349 2.0 10.0 0.00 0.00 0.00 58 1019.5
20260831181303 92 253 0.0 10.0 0.00 0.00 0.00 57 1019.5
20260831181203 92 203 0.0 10.0 0.00 0.00 0.00 57 1019.4
20260831181102 92 196 3.0 10.0 0.00 0.00 0.00 58 1019.4
20260831180902 92 197 3.0 10.0 0.00 0.00 0.00 60 1019.5
20260831180804 92 304 0.0 10.0 0.00 0.00 0.00 62 1019.5
20260831180701 92 229 2.0 10.0 0.00 0.00 0.00 59 1019.5
20260831180502 92 355 0.0 10.0 0.00 0.00 0.00 60 1019.5
20260831180403 92 138 0.0 10.0 0.00 0.00 0.00 60 1019.5
20260831180304 91 295 0.0 10.0 0.00 0.00 0.00 59 1019.6
20260831180202 91 33 0.0 6.0 0.00 0.00 0.00 60 1019.5
20260831180101 91 203 2.0 6.0 0.00 0.00 0.00 60 1019.6
20260831180005 91 147 0.0 6.0 0.00 0.00 0.00 61 1019.6
20260831175902 91 121 1.0 5.0 0.00 0.00 0.00 59 1019.5
20260831175803 91 173 2.0 5.0 0.00 0.00 0.00 60 1019.5
20260831175704 91 185 0.0 5.0 0.00 0.00 0.00 61 1019.5
20260831175603 91 296 1.0 5.0 0.00 0.00 0.00 60 1019.5
20260831175503 91 334 1.0 5.0 0.00 0.00 0.00 60 1019.6
20260831175401 91 205 2.0 5.0 0.00 0.00 0.00 60 1019.6
20260831175203 91 283 0.0 5.0 0.00 0.00 0.00 60 1019.6
20260831175103 91 162 0.0 5.0 0.00 0.00 0.00 61 1019.7
20260831175002 91 129 2.0 5.0 0.00 0.00 0.00 60 1019.6
20260831174803 91 5 2.0 7.0 0.00 0.00 0.00 61 1019.7
20260831174602 91 49 2.0 7.0 0.00 0.00 0.00 62 1019.6
20260831174504 91 169 1.0 7.0 0.00 0.00 0.00 61 1019.6
20260831174401 91 128 0.0 7.0 0.00 0.00 0.00 61 1019.7
20260831174303 91 161 4.0 7.0 0.00 0.00 0.00 60 1019.7
20260831174204 91 147 3.0 7.0 0.00 0.00 0.00 60 1019.7
20260831174102 91 191 2.0 7.0 0.00 0.00 0.00 59 1019.7
20260831174000 91 167 6.0 7.0 0.00 0.00 0.00 59 1019.7
20260831173902 91 136 4.0 8.0 0.00 0.00 0.00 61 1019.8
20260831173802 91 209 1.0 8.0 0.00 0.00 0.00 60 1019.8
20260831173702 91 238 3.0 8.0 0.00 0.00 0.00 60 1019.7
20260831173603 91 307 3.0 8.0 0.00 0.00 0.00 60 1019.7
20260831173502 91 179 0.0 8.0 0.00 0.00 0.00 61 1019.8
20260831173402 91 274 6.0 8.0 0.00 0.00 0.00 61 1019.8
20260831173203 91 189 0.0 8.0 0.00 0.00 0.00 60 1019.8
20260831173003 91 190 0.0 6.0 0.00 0.00 0.00 60 1019.8
20260831172802 91 236 3.0 7.0 0.00 0.00 0.00 61 1019.9
20260831172702 91 283 2.0 6.0 0.00 0.00 0.00 61 1019.8
20260831172602 91 24 3.0 6.0 0.00 0.00 0.00 61 1019.8
20260831172502 91 202 2.0 6.0 0.00 0.00 0.00 62 1019.8
20260831172402 91 252 2.0 6.0 0.00 0.00 0.00 62 1019.8
20260831172306 91 300 1.0 6.0 0.00 0.00 0.00 62 1019.8
20260831172201 91 58 0.0 6.0 0.00 0.00 0.00 61 1019.8
20260831172102 91 267 0.0 6.0 0.00 0.00 0.00 62 1019.8
20260831172004 90 146 1.0 8.0 0.00 0.00 0.00 62 1019.8
20260831171903 90 205 0.0 8.0 0.00 0.00 0.00 62 1019.8
20260831171802 90 167 1.0 8.0 0.00 0.00 0.00 62 1019.8
20260831171702 90 19 1.0 8.0 0.00 0.00 0.00 63 1019.8
20260831171603 90 120 2.0 8.0 0.00 0.00 0.00 63 1019.7
20260831171102 90 200 2.0 6.0 0.00 0.00 0.00 63 1019.8
20260831171003 90 243 2.0 6.0 0.00 0.00 0.00 63 1019.8
20260831170903 90 207 4.0 6.0 0.00 0.00 0.00 63 1019.7
20260831170804 90 192 4.0 6.0 0.00 0.00 0.00 63 1019.7
20260831170702 90 86 2.0 8.0 0.00 0.00 0.00 62 1019.7
20260831170502 90 201 3.0 8.0 0.00 0.00 0.00 62 1019.8
20260831170401 90 272 3.0 8.0 0.00 0.00 0.00 62 1019.8
20260831170303 90 196 1.0 8.0 0.00 0.00 0.00 63 1019.8
20260831170202 90 149 1.0 8.0 0.00 0.00 0.00 64 1019.9
20260831165901 90 164 4.0 9.0 0.00 0.00 0.00 61 1019.9
20260831165802 90 113 3.0 9.0 0.00 0.00 0.00 63 1019.9
20260831165703 90 5 5.0 9.0 0.00 0.00 0.00 62 1019.8
20260831165601 90 202 1.0 9.0 0.00 0.00 0.00 62 1019.9
20260831165501 90 321 4.0 9.0 0.00 0.00 0.00 62 1019.9
20260831165401 90 94 3.0 9.0 0.00 0.00 0.00 62 1019.9
20260831165301 90 172 3.0 9.0 0.00 0.00 0.00 62 1019.9
20260831165202 90 196 2.0 9.0 0.00 0.00 0.00 62 1020.0
20260831165103 90 179 5.0 9.0 0.00 0.00 0.00 63 1019.9
20260831165000 90 154 2.0 9.0 0.00 0.00 0.00 62 1019.9
20260831164901 90 171 2.0 9.0 0.00 0.00 0.00 63 1019.9
20260831164703 90 247 0.0 6.0 0.00 0.00 0.00 64 1020.0
20260831164601 90 178 0.0 6.0 0.00 0.00 0.00 64 1020.0
20260831164401 90 341 2.0 6.0 0.00 0.00 0.00 63 1020.0
20260831164301 90 171 2.0 6.0 0.00 0.00 0.00 63 1020.0
20260831164201 89 200 2.0 8.0 0.00 0.00 0.00 64 1020.0
20260831164101 89 169 1.0 8.0 0.00 0.00 0.00 64 1020.0
20260831163901 89 122 2.0 8.0 0.00 0.00 0.00 63 1020.0
20260831163801 89 177 1.0 8.0 0.00 0.00 0.00 63 1020.1
20260831163702 89 185 2.0 8.0 0.00 0.00 0.00 64 1020.0
20260831163602 89 281 1.0 8.0 0.00 0.00 0.00 63 1020.0
20260831163500 89 284 3.0 8.0 0.00 0.00 0.00 63 1020.0
20260831163401 89 200 2.0 8.0 0.00 0.00 0.00 63 1020.0
20260831163302 89 171 2.0 10.0 0.00 0.00 0.00 63 1020.0
20260831163201 89 183 0.0 10.0 0.00 0.00 0.00 63 1020.0
20260831163101 89 157 3.0 10.0 0.00 0.00 0.00 63 1020.0
20260831163001 89 173 2.0 10.0 0.00 0.00 0.00 62 1020.0
20260831162901 89 94 2.0 10.0 0.00 0.00 0.00 63 1020.1
20260831162802 89 254 0.0 10.0 0.00 0.00 0.00 63 1020.0
20260831162700 89 186 5.0 10.0 0.00 0.00 0.00 63 1020.0
20260831162600 90 189 2.0 10.0 0.00 0.00 0.00 63 1020.0
20260831162502 90 173 7.0 10.0 0.00 0.00 0.00 62 1020.0
20260831162400 89 355 6.0 10.0 0.00 0.00 0.00 63 1020.0
20260831162201 89 337 3.0 8.0 0.00 0.00 0.00 65 1020.0
20260831162001 89 360 2.0 8.0 0.00 0.00 0.00 64 1020.0
20260831161902 89 182 1.0 8.0 0.00 0.00 0.00 64 1020.0
20260831161801 89 136 0.0 8.0 0.00 0.00 0.00 63 1020.0
20260831161701 89 186 0.0 10.0 0.00 0.00 0.00 64 1020.0
20260831161603 89 165 1.0 12.0 0.00 0.00 0.00 63 1019.9
20260831161503 89 154 4.0 12.0 0.00 0.00 0.00 63 1020.0
20260831161301 89 158 0.0 12.0 0.00 0.00 0.00 63 1020.0
20260831161102 89 182 3.0 12.0 0.00 0.00 0.00 64 1020.0
20260831161003 89 360 2.0 12.0 0.00 0.00 0.00 65 1020.0
20260831160901 89 196 1.0 12.0 0.00 0.00 0.00 64 1020.0
20260831160701 89 350 1.0 7.0 0.00 0.00 0.00 67 1020.1
20260831160601 89 186 0.0 7.0 0.00 0.00 0.00 65 1019.9
20260831160401 88 172 2.0 8.0 0.00 0.00 0.00 65 1019.9
20260831160302 88 42 2.0 8.0 0.00 0.00 0.00 65 1020.0
20260831160201 88 159 2.0 8.0 0.00 0.00 0.00 65 1020.0
20260831160001 88 176 0.0 5.0 0.00 0.00 0.00 66 1019.9
20260831155801 88 171 1.0 5.0 0.00 0.00 0.00 66 1019.9
20260831155701 88 164 0.0 5.0 0.00 0.00 0.00 66 1019.9
20260831155601 88 157 0.0 5.0 0.00 0.00 0.00 66 1019.9
20260831155501 88 134 0.0 5.0 0.00 0.00 0.00 67 1019.9
20260831155401 88 132 1.0 5.0 0.00 0.00 0.00 68 1019.9
20260831155306 87 174 2.0 4.0 0.00 0.00 0.00 67 1019.9
20260831155201 87 192 1.0 4.0 0.00 0.00 0.00 68 1019.8
20260831155101 87 182 3.0 4.0 0.00 0.00 0.00 67 1019.9
20260831155003 87 167 4.0 4.0 0.00 0.00 0.00 67 1019.9
20260831154801 87 34 0.0 6.0 0.00 0.00 0.00 68 1019.9
20260831154601 87 229 0.0 7.0 0.00 0.00 0.00 68 1019.9
20260831154301 87 164 1.0 7.0 0.00 0.00 0.00 67 1019.9
20260831154201 86 239 1.0 7.0 0.00 0.00 0.00 68 1019.8
20260831154103 86 317 1.0 7.0 0.00 0.00 0.00 68 1019.9
20260831154004 86 259 0.0 7.0 0.00 0.00 0.00 68 1019.8
20260831153902 86 281 1.0 7.0 0.00 0.00 0.00 69 1019.9
20260831153701 86 334 2.0 4.0 0.00 0.00 0.00 70 1019.9
20260831153602 86 300 0.0 4.0 0.00 0.00 0.00 69 1020.0
20260831153300 86 275 2.0 4.0 0.00 0.00 0.00 69 1019.9
20260831153201 86 275 1.0 4.0 0.00 0.00 0.00 69 1019.9
20260831153102 86 149 0.0 4.0 0.00 0.00 0.00 69 1020.0
20260831153003 86 248 0.0 4.0 0.00 0.00 0.00 68 1020.0
20260831152801 86 158 1.0 6.0 0.00 0.00 0.00 69 1020.0
20260831152701 86 223 0.0 6.0 0.00 0.00 0.00 68 1020.0
20260831152601 86 195 1.0 6.0 0.00 0.00 0.00 68 1020.0
20260831152501 86 195 2.0 6.0 0.00 0.00 0.00 68 1020.0
20260831152402 86 113 1.0 6.0 0.00 0.00 0.00 68 1020.0
20260831152306 86 355 0.0 6.0 0.00 0.00 0.00 69 1019.9
20260831152201 86 212 0.0 6.0 0.00 0.00 0.00 68 1020.0
20260831152102 86 252 1.0 8.0 0.00 0.00 0.00 68 1019.9
20260831152001 86 265 1.0 8.0 0.00 0.00 0.00 68 1019.9
20260831151901 86 175 2.0 8.0 0.00 0.00 0.00 68 1019.9
20260831151802 86 160 4.0 8.0 0.00 0.00 0.00 69 1019.9
20260831151702 85 217 1.0 8.0 0.00 0.00 0.00 68 1019.9
20260831151602 85 186 1.0 8.0 0.00 0.00 0.00 68 1019.8
20260831151503 85 137 2.0 8.0 0.00 0.00 0.00 68 1019.9
20260831151403 85 327 3.0 8.0 0.00 0.00 0.00 68 1020.0
20260831151302 85 98 1.0 8.0 0.00 0.00 0.00 68 1020.0
20260831151201 85 298 4.0 7.0 0.00 0.00 0.00 68 1020.0
20260831151101 85 275 0.0 7.0 0.00 0.00 0.00 68 1019.9
20260831150902 85 209 1.0 4.0 0.00 0.00 0.00 68 1020.0
20260831150801 85 277 0.0 4.0 0.00 0.00 0.00 68 1020.0
20260831150701 84 340 1.0 4.0 0.00 0.00 0.00 67 1020.0
20260831150601 84 193 3.0 4.0 0.00 0.00 0.00 67 1020.0
20260831150501 84 188 1.0 4.0 0.00 0.00 0.00 68 1020.0
20260831150401 84 137 0.0 4.0 0.00 0.00 0.00 68 1020.1
20260831150303 84 158 0.0 5.0 0.00 0.00 0.00 68 1020.0
20260831150004 83 246 1.0 5.0 0.00 0.00 0.00 68 1019.9
20260831145901 83 309 1.0 5.0 0.00 0.00 0.00 68 1020.0
20260831145701 83 198 3.0 5.0 0.00 0.00 0.00 68 1020.0
20260831145601 83 334 4.0 5.0 0.00 0.00 0.00 68 1020.0
20260831145401 83 197 2.0 5.0 0.00 0.00 0.00 69 1020.0
20260831145300 83 199 4.0 5.0 0.00 0.00 0.00 69 1020.0
20260831145203 83 167 3.0 5.0 0.00 0.00 0.00 69 1020.0
20260831145101 83 170 2.0 5.0 0.00 0.00 0.00 69 1020.0
20260831145001 82 31 0.0 4.0 0.00 0.00 0.00 70 1020.0
20260831144901 82 284 1.0 4.0 0.00 0.00 0.00 70 1020.1
20260831144801 82 182 0.0 4.0 0.00 0.00 0.00 70 1020.0
20260831144702 82 308 0.0 4.0 0.00 0.00 0.00 69 1020.0
20260831144601 82 175 0.0 4.0 0.00 0.00 0.00 69 1020.0
20260831144501 82 175 1.0 4.0 0.00 0.00 0.00 69 1019.9
20260831144401 82 212 0.0 4.0 0.00 0.00 0.00 69 1019.9
20260831144302 82 259 0.0 4.0 0.00 0.00 0.00 69 1019.9
20260831143900 82 299 1.0 2.0 0.00 0.00 0.00 70 1019.9
20260831143802 82 185 0.0 2.0 0.00 0.00 0.00 69 1019.9
20260831143700 82 173 0.0 2.0 0.00 0.00 0.00 70 1019.9
20260831143601 82 217 0.0 4.0 0.00 0.00 0.00 70 1019.9
20260831143501 81 264 0.0 4.0 0.00 0.00 0.00 70 1019.9
20260831143401 81 107 0.0 4.0 0.00 0.00 0.00 70 1019.8
20260831143301 81 229 0.0 4.0 0.00 0.00 0.00 70 1019.8
20260831143201 81 181 0.0 4.0 0.00 0.00 0.00 70 1019.8
20260831143104 81 333 1.0 4.0 0.00 0.00 0.00 71 1019.8
20260831143001 81 184 2.0 4.0 0.00 0.00 0.00 70 1019.7
20260831142901 81 309 0.0 4.0 0.00 0.00 0.00 71 1019.7
20260831142702 81 283 1.0 4.0 0.00 0.00 0.00 71 1019.7
20260831142602 81 335 2.0 4.0 0.00 0.00 0.00 71 1019.7
20260831142402 80 342 1.0 4.0 0.00 0.00 0.00 71 1019.7
20260831142301 80 180 1.0 4.0 0.00 0.00 0.00 72 1019.6
20260831142202 80 234 1.0 4.0 0.00 0.00 0.00 71 1019.6
20260831142102 80 183 2.0 4.0 0.00 0.00 0.00 72 1019.6
20260831142002 80 275 0.0 2.0 0.00 0.00 0.00 72 1019.7
20260831141901 80 182 0.0 2.0 0.00 0.00 0.00 72 1019.6
20260831141801 80 188 0.0 2.0 0.00 0.00 0.00 72 1019.7
20260831141703 80 193 0.0 2.0 0.00 0.00 0.00 73 1019.6
20260831141502 79 175 1.0 2.0 0.00 0.00 0.00 73 1019.7
20260831141301 79 215 0.0 2.0 0.00 0.00 0.00 73 1019.7
20260831141201 79 178 0.0 2.0 0.00 0.00 0.00 73 1019.7
20260831141103 79 185 0.0 2.0 0.00 0.00 0.00 73 1019.7
20260831141003 79 177 0.0 2.0 0.00 0.00 0.00 74 1019.7
20260831140901 79 255 0.0 3.0 0.00 0.00 0.00 73 1019.7
20260831140800 79 255 0.0 3.0 0.00 0.00 0.00 73 1019.7
20260831140601 79 170 0.0 3.0 0.00 0.00 0.00 73 1019.7
20260831140500 79 160 0.0 3.0 0.00 0.00 0.00 73 1019.7
20260831140401 79 171 0.0 3.0 0.00 0.00 0.00 73 1019.7
20260831140200 79 228 0.0 5.0 0.00 0.00 0.00 73 1019.7
20260831140000 79 251 0.0 5.0 0.00 0.00 0.00 73 1019.7
20260831135902 79 178 1.0 5.0 0.00 0.00 0.00 73 1019.7
20260831135801 79 194 2.0 5.0 0.00 0.00 0.00 73 1019.7
20260831135700 79 184 2.0 5.0 0.00 0.00 0.00 73 1019.7
20260831135602 79 182 0.0 5.0 0.00 0.00 0.00 73 1019.7
20260831135501 79 219 1.0 5.0 0.00 0.00 0.00 73 1019.6
20260831135401 79 217 1.0 5.0 0.00 0.00 0.00 73 1019.7
20260831135302 79 198 0.0 4.0 0.00 0.00 0.00 74 1019.6
20260831135100 79 178 0.0 4.0 0.00 0.00 0.00 73 1019.6
20260831135002 79 184 3.0 4.0 0.00 0.00 0.00 74 1019.6
20260831134901 79 180 2.0 4.0 0.00 0.00 0.00 73 1019.6
20260831134801 79 210 0.0 4.0 0.00 0.00 0.00 73 1019.7
20260831134701 79 150 2.0 4.0 0.00 0.00 0.00 74 1019.6
20260831134604 79 232 0.0 3.0 0.00 0.00 0.00 74 1019.6
20260831134501 79 162 0.0 3.0 0.00 0.00 0.00 74 1019.7
20260831134402 79 248 0.0 3.0 0.00 0.00 0.00 74 1019.6
20260831134300 78 250 0.0 3.0 0.00 0.00 0.00 74 1019.6
20260831134201 78 294 0.0 3.0 0.00 0.00 0.00 74 1019.6
20260831134101 78 321 0.0 2.0 0.00 0.00 0.00 74 1019.7
20260831134001 78 190 0.0 2.0 0.00 0.00 0.00 74 1019.6
20260831133901 78 184 0.0 2.0 0.00 0.00 0.00 74 1019.6
20260831133802 78 184 0.0 2.0 0.00 0.00 0.00 74 1019.6
20260831133702 78 317 2.0 2.0 0.00 0.00 0.00 74 1019.7
20260831133502 78 171 0.0 2.0 0.00 0.00 0.00 74 1019.7
20260831133400 78 164 0.0 2.0 0.00 0.00 0.00 74 1019.6
20260831133302 78 136 0.0 2.0 0.00 0.00 0.00 74 1019.7
20260831133202 78 170 0.0 3.0 0.00 0.00 0.00 74 1019.7
20260831133102 78 171 0.0 3.0 0.00 0.00 0.00 74 1019.7
20260831133004 78 301 0.0 3.0 0.00 0.00 0.00 75 1019.6
20260831132902 78 167 0.0 3.0 0.00 0.00 0.00 75 1019.6
20260831132801 78 329 0.0 3.0 0.00 0.00 0.00 74 1019.7
20260831132701 78 242 0.0 3.0 0.00 0.00 0.00 75 1019.6
20260831132600 78 215 0.0 3.0 0.00 0.00 0.00 75 1019.6
20260831132501 78 182 0.0 3.0 0.00 0.00 0.00 75 1019.7
20260831132301 78 169 0.0 1.0 0.00 0.00 0.00 75 1019.7
20260831132002 78 290 0.0 0.0 0.00 0.00 0.00 76 1019.7
20260831131900 78 196 0.0 0.0 0.00 0.00 0.00 76 1019.7
20260831131802 78 259 0.0 0.0 0.00 0.00 0.00 76 1019.7
20260831131701 77 255 0.0 0.0 0.00 0.00 0.00 76 1019.7
20260831131501 77 231 0.0 0.0 0.00 0.00 0.00 76 1019.7
20260831131401 77 216 0.0 0.0 0.00 0.00 0.00 76 1019.7
20260831131301 77 215 0.0 0.0 0.00 0.00 0.00 76 1019.7
20260831131102 77 222 0.0 0.0 0.00 0.00 0.00 76 1019.7
20260831131001 77 217 0.0 0.0 0.00 0.00 0.00 76 1019.7
20260831130900 77 221 0.0 0.0 0.00 0.00 0.00 75 1019.7
20260831130800 77 169 0.0 0.0 0.00 0.00 0.00 76 1019.7
20260831130701 77 169 0.0 0.0 0.00 0.00 0.00 76 1019.7
20260831130501 77 228 0.0 0.0 0.00 0.00 0.00 76 1019.7
20260831130402 77 228 0.0 0.0 0.00 0.00 0.00 76 1019.6
20260831130303 77 301 0.0 0.0 0.00 0.00 0.00 76 1019.6
20260831130201 77 140 0.0 0.0 0.00 0.00 0.00 76 1019.6
20260831130100 77 128 0.0 0.0 0.00 0.00 0.00 76 1019.6
20260831125905 77 192 0.0 0.0 0.00 0.00 0.00 76 1019.5
20260831125800 77 190 0.0 0.0 0.00 0.00 0.00 76 1019.6
20260831125603 77 171 0.0 1.0 0.00 0.00 0.00 76 1019.5
20260831125502 77 180 0.0 1.0 0.00 0.00 0.00 76 1019.5
20260831125400 77 177 0.0 3.0 0.00 0.00 0.00 77 1019.5